.

Date Time Name Race Sex Age Charge Charge Description Case ID
4/8/2018 1:49:00 PM 1349 HATTON, QUENTIN TERRENCE B M 36 46.2-896 HIT & RUN - UNATTENDED VEH 2018003922
4/9/2018 0222 WALSH, CHRISTOPHER MASON W M 42 18.2-456 CONTEMPT OF COURT
4/9/2018 1400 SAVAGE, DARRELL DEVAUGHN B M 31 19.2-128|[F] FAIL TO APPEAR ON FELONY CHARGE
4/9/2018 1400 SAVAGE, DARRELL DEVAUGHN B M 31 19.2-128|[M] FAIL TO APPEAR ON MISDEMEANOR CHARGE
4/9/2018 1400 SAVAGE, DARRELL DEVAUGHN B M 31 16.1-278.16 FAIL TO COMPLY WITH SUPPORT OBLIGATIONS
4/9/2018 1400 SAVAGE, DARRELL DEVAUGHN B M 31 18.2-456 CONTEMPT OF COURT
4/9/2018 1720 KING, JOE WILLIE III B M 50 18.2-456 CONTEMPT OF COURT
4/9/2018 2313 COLLINS, JAQUAY ARMANI B F 19 18.2-57|[M] ASSAULT & BATTERY 7777250068
4/9/2018 8:40:00 PM 2040 RIDD, GWENDOLYN RENEE B F 62 18.2-57.2|[M] ASSAULT & BATTERY - FAMILY MEMBER
4/10/2018 0038 ARTIS, DAVELL LAMON B M 34 18.2-57.2|[M] ASSAULT & BATTERY - FAMILY MEMBER 2018004038
4/10/2018 0054 GARABEDIAN, EDWARD JOHN JR W M 48 18.2-266|[M] DRIVING UNDER THE INFLUENCE OF ALCOHOL 2018004039
4/10/2018 0054 GARABEDIAN, EDWARD JOHN JR W M 48 46.2-357|[F] OPERATE MOTOR VEH - HABITUAL OFFENDER 2018004039
4/10/2018 0054 GARABEDIAN, EDWARD JOHN JR W M 48 46.2-301 DRIVING W/SUSPENDED OR REVOKED LICENSE 2018004039
4/10/2018 0054 GARABEDIAN, EDWARD JOHN JR W M 48 46.2-817|[M] ELUDING POLICE 2018004039
4/10/2018 0054 GARABEDIAN, EDWARD JOHN JR W M 48 18.2-268.3 REFUSE BLOOD/BREATH TEST 2018004039
4/10/2018 0054 GARABEDIAN, EDWARD JOHN JR W M 48 18.2-323.1 DRINKING WHILE OPERATING MOTOR VEHICLE 2018004039
4/10/2018 0304 FORTT, WAYNE D JR B M 41 18.2-266|[M] DRIVING UNDER THE INFLUENCE OF ALCOHOL 2018004043
4/10/2018 0400 HAYWOOD, ANGELA DAWN W F 39 18.2-266|[M] DRIVING UNDER THE INFLUENCE OF ALCOHOL 2018004045
4/10/2018 0400 HAYWOOD, ANGELA DAWN W F 39 46.2-301 DRIVING W/SUSPENDED OR REVOKED LICENSE 2018004045
4/10/2018 0845 BLOW, FERNANDO CURTEZ B M 26 18.2-456 CONTEMPT OF COURT
4/10/2018 1123 SCARBOR, KEITH MAURICE B M 55 18.2-51 FELONIOUS ASSAULT
4/10/2018 1255 LEWIS, TERRY LEE SR B M 42 18.2-96|[F] LARCENY OR THEFT (3RD OR SUBSQ OFFENSE) 2018004057
4/10/2018 1330 BROWN, COREY JAMEL B M 24 18.2-119 TRESPASSING 2018004067
4/10/2018 1330 BROWN, COREY JAMEL B M 24 19.2-128|[M] FAIL TO APPEAR ON MISDEMEANOR CHARGE
4/10/2018 1810 JOHNSON, FRANK BERNARD B M 53 18.2-456 CONTEMPT OF COURT
4/10/2018 1839 MITCHELL, WARDAIN DONALD B M 22 18.2-456 CONTEMPT OF COURT
4/10/2018 1902 TURNER, DAVID LAMONT B M 42 18.2-456 CONTEMPT OF COURT
4/10/2018 2035 LOWERY, ANDRA LEE B M 58 18.2-456 CONTEMPT OF COURT
4/10/2018 2350 WEST, RODNEY B M 52 18.2-250|[F] POSSESSION OF CONTROLLED SUBSTANCES 2018004088
4/11/2018 0020 BOYD, HOWARD JR B M 51 18.2-250|[F] POSSESSION OF CONTROLLED SUBSTANCES 2018004087
4/11/2018 0045 PATTERSON, RODNEY DEON B M 47 19.2-306|[F] REVOCATION OF SUSPENDED SENTENCE AND PROBATION
4/11/2018 0045 PATTERSON, RODNEY DEON B M 47 18.2-456 CONTEMPT OF COURT
4/11/2018 0650 DEITER, CHARLES ANTHONY W M 33 19.2-306|[F] REVOCATION OF SUSPENDED SENTENCE AND PROBATION 9999250170
4/11/2018 0830 LIGHTFOOT, JOSEPH CORBETT B M 26 18.2-57.2|[M] ASSAULT & BATTERY - FAMILY MEMBER
4/11/2018 1117 HALL, CARLTON B M 52 18.2-456 CONTEMPT OF COURT
4/11/2018 1242 FERGUSON, AZALEA ANN B F 53 18.2-456 CONTEMPT OF COURT
4/11/2018 1500 RAYEFORD, DERELL LAMAR B M 32 18.2-248.1|[F] SALE, DISTRIBUTE MARIJUANA 2018004102
4/11/2018 1500 RAYEFORD, DERELL LAMAR B M 32 46.2-301 DRIVING W/SUSPENDED OR REVOKED LICENSE 2018004102
4/11/2018 1500 RAYEFORD, DERELL LAMAR B M 32 46.2-1095 CHILD RESTRAINT DEVICE REQUIRED 2018004102
4/11/2018 1500 RAYEFORD, DERELL LAMAR B M 32 46.2-715 STATE LICENSE PLATES - FRONT AND REAR REQUIRED 2018004102
4/11/2018 1503 COTTLE, JOANNA MARIE W F 34 18.2-137|[M] DESTRUCTION OF PROPERTY, GENERAL
4/11/2018 1620 PERRY, TYQUAN RAYMONT B M 27 18.2-371 CONTRIBUTING TO THE DELINQUENCY OF A MIN
4/11/2018 1830 TUCKER, TIMOTHY ONEIL JR B M 33 18.2-456 CONTEMPT OF COURT
4/11/2018 2253 WALDEN, MICHAEL TERRANCE B M 59 18.2-250|[F] POSSESSION OF CONTROLLED SUBSTANCES 2018004124
4/11/2018 2340 REYNOLDS, TERRELL LAMONT B M 24 24-258 PUBLIC DRUNKENNESS 2018004129
4/11/2018 8:45:00 AM 0845 MORRIS, DEBORAH MELISSA B F 49 18.2-57|[M] ASSAULT & BATTERY
4/11/2018 1:10:00 PM 1310 STYLES, ANTONY DEONTAE B M 23 18.2-57.2|[M] ASSAULT & BATTERY - FAMILY MEMBER 2018004070
4/11/2018 6:30:00 PM 1830 TUCKER, TIMOTHY ONEIL JR B M 33 18.2-456 CONTEMPT OF COURT
4/12/2018 0915 PETERS, VICTORIA MORGAN W F 22 18.2-266 DRIVING UNDER THE INFLUENCE OF ALCOHOL
4/12/2018 1045 DEITER, CHARLES ANTHONY W M 33 18.2-456 CONTEMPT OF COURT 9999250172
4/12/2018 1157 MCLEN, LAWRENCE DWAYNE B M 37 18.2-456 CONTEMPT OF COURT 9999250159
4/12/2018 1416 DORSETT, RICHARD ALVIN W M 47 COURTESY COURTESY HOLD
4/12/2018 1710 O`DONNELL, JOSEPHINE ALISBO A F 61 18.2-456 CONTEMPT OF COURT
4/12/2018 1806 HARRELL, WILLIAM LEWIS W M 55 18.2-91|[F] BREAKING & ENTER W/INT TO COMMIT FELONY 2018003343
4/12/2018 1806 HARRELL, WILLIAM LEWIS W M 55 18.2-95 GRAND LARCENY 2018003343
4/12/2018 1806 HARRELL, WILLIAM LEWIS W M 55 18.2-108.01 STOLEN PROPERTY: W/ INTENT TO SELL, LARCENY>$200 2018003343
4/12/2018 1806 HARRELL, WILLIAM LEWIS W M 55 18.2-178|[M] OBTAINING MONEY BY FALSE PRETENSES 2018003343
4/12/2018 1945 GIBBS, MAURICE TERRIAL B M 28 19.2-306|[F] REVOCATION OF SUSPENDED SENTENCE AND PROBATION
4/12/2018 2044 FAINE, DARRYL REGINALD B M 54 18.2-33 FELONY HOMICIDE 2015015828
4/12/2018 2044 FAINE, DARRYL REGINALD B M 54 18.2-308.2 POSSESS, TRANSPORT FIREARMS BY CONVICTED FELONS 2015015828
4/12/2018 2044 FAINE, DARRYL REGINALD B M 54 18.2-56.1 RECKLESS HANDLING OF FIREARM 2015015828
4/12/2018 2052 MCINTYRE, GERARD MATTHEW B M 27 18.2-57.2|[M] ASSAULT & BATTERY - FAMILY MEMBER 2018003476
4/12/2018 2337 HATCH, QURAN RASUL B M 21 18.2-308.012[M] CARRY HANDGUN IN PUBLIC UNDER THE INFLUENCE 2018004179
4/12/2018 9:20:00 AM 0920 GREGORY, JULIUS LE`SHAWN B M 29 18.2-57|[M] ASSAULT & BATTERY
4/12/2018 11:57:00 AM 1157 HARGROVE, ROLAND HOOVER JR B M 42 18.2-456 CONTEMPT OF COURT 9999250158
4/12/2018 5:00:00 PM 1700 INGRAM, LOREN MICHELLE B F 22 18.2-57.2|[M] ASSAULT & BATTERY - FAMILY MEMBER
4/12/2018 9:04:00 PM 2104 VALENTINE, MARCUS XAVIER B M 21 46.2-928 PEDESTRIANS - MUST USE SIDEWALK IF AVAILABLE.
4/13/2018 0050 RAMAN, DOMINIQUE CHRISTOPHER B M 22 18.2-250.1 POSSESSION OF MARIJUANA 2018004220
4/13/2018 0139 SCOTT, DEVIN CENTEL B M 31 18.2-456 CONTEMPT OF COURT
4/13/2018 0953 PALMER, TEVIN DEANGELO B M 27 19.2-306|[F] REVOCATION OF SUSPENDED SENTENCE AND PROBATION
4/13/2018 1030 FAISON, ROBERT BASHEAM B M 26 18.2-250.1 POSSESSION OF MARIJUANA 9999250686
4/13/2018 1152 COLLINS, TAMARA YVETTE B F 35 19.2-306|[F] REVOCATION OF SUSPENDED SENTENCE AND PROBATION
4/13/2018 1212 LAMB, DANGELO JAMARR B M 20 18.2-58 ROBBERY 2018004121
4/13/2018 1212 LAMB, DANGELO JAMARR B M 20 18.2-22 CONSPIRACY TO COMMIT FELONY 2018004121
4/13/2018 1212 LAMB, DANGELO JAMARR B M 20 18.2-308.2 POSSESS, TRANSPORT FIREARMS BY CONVICTED FELONS 2018004121
4/13/2018 1212 LAMB, DANGELO JAMARR B M 20 18.2-53.1 USE OR DISPLAY FIREARM IN COMMISSION OF FELONY 2018004121
4/13/2018 1225 SAYERS, CHRISTIAN THOMAS W M 27 18.2-456 CONTEMPT OF COURT
4/13/2018 1308 WINGATE, SHERELLE FRANCES B F 40 18.2-427 PROFANE, THREATENING LANGUAGE OVER PUBLIC AIRWAY 2015014949
4/13/2018 1308 WINGATE, SHERELLE FRANCES B F 40 18.2-427 PROFANE, THREATENING LANGUAGE OVER PUBLI 2015014949
4/13/2018 1308 WINGATE, SHERELLE FRANCES B F 40 18.2-429 ANNOYING PHONE CALLS 2015014949
4/13/2018 1512 GILDON, JOSHUA HARRIS W M 30 18.2-57.2|[F] ASSAULT & BATTERY - FAMILY MEMBER (3RD OFFENSE) 2018004195
4/13/2018 1650 MCPAHIL, JAHKIL TIASHION B M 20 19.2-128|[M] FAIL TO APPEAR ON MISDEMEANOR CHARGE
4/13/2018 1848 JOHNSON, ROBERT JAY B M 35 18.2-57|[M] ASSAULT & BATTERY
4/13/2018 1848 JOHNSON, ROBERT JAY B M 35 18.2-119 TRESPASSING
4/13/2018 2135 POTTS, VERNON JERNOD B M 33 18.2-456 CONTEMPT OF COURT
4/13/2018 3:55:00 PM 1555 VELAZQUEZ, JOSHUA W M 23 18.2-57.2|[M] ASSAULT & BATTERY - FAMILY MEMBER 2018004191
4/14/2018 0001 HAMPTON, DILLON CHARLES W M 24 18.2-456 CONTEMPT OF COURT
4/14/2018 0001 HAMPTON, DILLON CHARLES W M 24 18.2-57|[M] ASSAULT & BATTERY 2018004234
4/14/2018 0343 GENEREUX, ROLAND FRANK W M 29 18.2-57|[M] ASSAULT & BATTERY 2018002132
4/14/2018 0343 GENEREUX, ROLAND FRANK W M 29 24-258 PUBLIC DRUNKENNESS 2018004230
4/14/2018 0410 RIVERA, MELISSA LATISHA B F 30 18.2-57.2|[M] ASSAULT & BATTERY - FAMILY MEMBER 2018004227
4/14/2018 0815 FREEMAN, RONDA LEE W F 45 24-258 PUBLIC DRUNKENNESS
4/14/2018 1538 NICHOLAS, WILLIAM ROBERT W M 31 18.2-95 GRAND LARCENY 2018004238
4/14/2018 1620 FOWLER, ELIZABETH ANN W F 27 18.2-95 GRAND LARCENY 2018004238
4/14/2018 1623 FOWLER, ELIZABETH ANN W F 27 18.2-250|[F] POSSESSION OF CONTROLLED SUBSTANCES 2018004246
4/14/2018 2245 SMITH, RICKEY LEE B M 59 18.2-266 DRIVING UNDER THE INFLUENCE OF ALCOHOL 2018004257
4/14/2018 2245 SMITH, RICKEY LEE B M 59 18.2-268.3 REFUSE BLOOD/BREATH TEST 2018004257
4/14/2018 1:48:00 AM 0148 HUNT, KRISTEN NICOLE W F 27 24-258 PUBLIC DRUNKENNESS 2018004222
4/14/2018 1:48:00 AM 0148 HUNT, KRISTEN NICOLE W F 27 18.2-57.2|[M] ASSAULT & BATTERY - FAMILY MEMBER 2018004222
4/14/2018 9:58:00 AM 0958 BROWN, ADRIENNE MONIQUE B F 36 18.2-456 CONTEMPT OF COURT
4/15/2018 0031 HECKSTALL, ANDRE B M 24 24-258 PUBLIC DRUNKENNESS
4/15/2018 0122 ROGERS, HARVEY LARIZENO B M 27 18.2-53.1 USE OR DISPLAY FIREARM IN COMMISSION OF 2018003423
4/15/2018 0122 ROGERS, HARVEY LARIZENO B M 27 18.2-32|[F][B] MURDER - SECOND DEGREE 2018003423
4/15/2018 0122 ROGERS, HARVEY LARIZENO B M 27 18.2-308.2 POSSESS, TRANSPORT FIREARMS BY CONVICTED 2018003423
4/15/2018 0122 ROGERS, HARVEY LARIZENO B M 27 18.2-248|[F] MANUF, SALE, POSSESSION CONTROLLED SUBSTANCE
4/15/2018 0555 STRAND, DOMONIC TERRYL B M 33 18.2-266 DRIVING UNDER THE INFLUENCE OF ALCOHOL 2018004271
4/15/2018 0555 STRAND, DOMONIC TERRYL B M 33 18.2-268.3 REFUSE BLOOD/BREATH TEST 2018004271
4/15/2018 0855 YANCY, JACKIE RENARD B M 38 18.2-456 CONTEMPT OF COURT
4/15/2018 0938 POINTER, MARVIN DANTE B M 38 18.2-32|[F][A] MURDER - FIRST DEGREE 2018001081
4/15/2018 0938 POINTER, MARVIN DANTE B M 38 18.2-308.2 POSSESS, TRANSPORT FIREARMS BY CONVICTED 2018001081
4/15/2018 0938 POINTER, MARVIN DANTE B M 38 18.2-53.1 USE OR DISPLAY FIREARM IN COMMISSION OF FELONY 2018001081
4/15/2018 1145 RAGLAND, CHARLES BRADLEY W M 39 19.2-306|[F] REVOCATION OF SUSPENDED SENTENCE AND PROBATION
4/15/2018 1230 NELSON, GARY ELWOOD B M 32 18.2-103|[M] CONCEALMENT, PRICE ALTER MERCHANDISE <$200 2018004286
4/15/2018 1249 ROGERS, HOWARD WARREN B M 31 18.2-248|[F] MANUF, SALE, POSSESSION CONTROLLED SUBSTANCE
4/15/2018 1737 RODGERS, QUANTEZ DAVAUN SR B M 23 18.2-95 GRAND LARCENY 2017014417
4/15/2018 1737 RODGERS, QUANTEZ DAVAUN SR B M 23 18.2-308.2 POSSESS, TRANSPORT FIREARMS BY CONVICTED FELONS 2017014417
4/15/2018 2017 POOLE, JACOB MCKINLEY W M 23 18.2-102|[F] UNAUTHORIZED USE OF VEHICLE, BOAT OR ANIMAL
4/15/2018 12:06:00 AM 0006 ROGERS, HOWARD WARREN B M 31 19.2-128|[F] FAIL TO APPEAR ON FELONY CHARGE
4/16/2018 0206 HOBBS, JAZMINE LEE W F 18 18.2-51 FELONIOUS ASSAULT
4/16/2018 0206 HOBBS, JAZMINE LEE W F 18 18.2-53.1 USE OR DISPLAY FIREARM IN COMMISSION OF FELONY
4/16/2018 0206 HOBBS, JAZMINE LEE W F 18 18.2-192 CREDIT CARD THEFT
4/16/2018 0206 HOBBS, JAZMINE LEE W F 18 18.2-58 ROBBERY
4/16/2018 0725 ERVIN, JOSEPH CLAY B M 45 18.2-456 CONTEMPT OF COURT
4/16/2018 1128 DREW, KEON DONTEZ B M 22 19.2-306|[F] REVOCATION OF SUSPENDED SENTENCE AND PROBATION
4/16/2018 1215 HART, ANTONIO W M 22 18.2-57.2|[M] ASSAULT & BATTERY - FAMILY MEMBER
4/16/2018 1215 HART, ANTONIO W M 22 18.2-137|[M] DESTRUCTION OF PROPERTY, GENERAL
4/16/2018 10:15:00 AM 1015 BAILEY, MICHAEL ANDRE B M 31 18.2-456 CONTEMPT OF COURT
4/16/2018 10:15:00 AM 1015 JONES, ROBERT LEWIS III W M 26 16.1-253.2[M] PROTECTIVE ORDER: VIOLATION 9999250181
4/17/2018 0014 STEPHENS, LAMONT JAMAL B M 26 19.2-306|[F] REVOCATION OF SUSPENDED SENTENCE AND PROBATION
4/17/2018 0028 PORTER, RICHARD AMON B M 31 18.2-57|[M] ASSAULT & BATTERY
4/17/2018 0028 PORTER, RICHARD AMON B M 31 18.2-456 CONTEMPT OF COURT
4/17/2018 0203 PARKER, DERRICK DESHAWN B M 23 18.2-456 CONTEMPT OF COURT
4/17/2018 1220 HEFFLEFINGER, CHRISTOPHER SHANE W M 33 18.2-60.4 [M] VIOLATION OF STALKING PROTECTIVE ORDER 9999250479
4/17/2018 1440 CUFFEE, CLAYTON CORNELL B M 30 18.2-308.2:2|[F] FIREARM PURCHASE OR DEALER VIOLATION
4/17/2018 1450 JORDAN, WAYNE DEMUS B M 40 16.1-278.16 FAIL TO COMPLY WITH SUPPORT OBLIGATIONS
4/17/2018 1537 OWENS, EVON CARL B M 39 18.2-111|[F] EMBEZZLEMENT >=$200 2018000922
4/17/2018 1537 OWENS, EVON CARL B M 39 18.2-172 FORGING, UTTERING 2018000922
4/17/2018 1635 HOWES, JACQUELINE MARIE W F 27 18.2-195|[F] CREDIT CARD FRAUD
4/17/2018 1705 BARKSDALE, LECALVIN TRAYUAIL B M 19 18.2-53.1 USE OR DISPLAY FIREARM IN COMMISSION OF 2018000504
4/17/2018 1940 JONES, ROBERT ANTHONY B M 59 19.2-306|[F] REVOCATION OF SUSPENDED SENTENCE AND PROBATION
4/17/2018 2032 WINBOURNE, BREYON JUANANTHONY B M 23 18.2-308|[M] CARRYING CONCEALED WEAPON -1ST OFFENSE 2018004377
4/17/2018 2039 GALLOWAY, DWIGHT DEMUS B M 66 24-258 PUBLIC DRUNKENNESS 2018004372
4/17/2018 2039 GALLOWAY, DWIGHT DEMUS B M 66 18.2-119 TRESPASSING 2018004372
4/17/2018 2100 ELKINS, JEFFREY MITCHELL W M 46 18.2-456 CONTEMPT OF COURT
4/17/2018 2227 MITCHELL, SHATIARA RHODESIA B F 46 18.2-456 CONTEMPT OF COURT
4/17/2018 2227 MITCHELL, SHATIARA RHODESIA B F 46 19.2-306|[F] REVOCATION OF SUSPENDED SENTENCE AND PROBATION
4/17/2018 2227 MITCHELL, SHATIARA RHODESIA B F 46 18.2-51 FELONIOUS ASSAULT 2018000895
4/17/2018 2240 RODGERS, DWAYNE LEMONT B M 37 18.2-456 CONTEMPT OF COURT
4/17/2018 2334 ROOKE, GABRIELLA NATALIA B F 28 46.2-301 DRIVING W/SUSPENDED OR REVOKED LICENSE 2018004379
4/17/2018 2334 ROOKE, GABRIELLA NATALIA B F 28 46.2-830 FAIL TO OBEY SIGNS/ BOND SURRENDER/ IMPROP EQUIP 2018004379
4/17/2018 2334 ROOKE, GABRIELLA NATALIA B F 28 46.2-104 NO OPERATORS LICENSE IN POSSESSION 2018004379
4/17/2018 2334 ROOKE, GABRIELLA NATALIA B F 28 46.2-613 VEHICLE REGISTRATION VIOLATIONS 2018004379
4/17/2018 2350 SMITH, ESSHAWNDA VALVETTA B F 24 18.2-456 CONTEMPT OF COURT
4/17/2018 7:39:00 AM 0739 THOMAS, JEREMAINE ANTONIO B M 42 18.2-57.2|[M] ASSAULT & BATTERY - FAMILY MEMBER
4/17/2018 10:49:00 AM 1049 WRIGHT, BAKARI LAMONTE B M 19 18.2-456 CONTEMPT OF COURT
4/18/2018 0002 WEBSTER, ANTONIO TYRONE B M 30 18.2-456 CONTEMPT OF COURT
4/18/2018 0301 RHODES, DUSTIN CHARLES W M 40 18.2-266|[M] DRIVING UNDER THE INFLUENCE OF ALCOHOL 2018004380
4/18/2018 0301 RHODES, DUSTIN CHARLES W M 40 18.2-308.012[M] CARRY HANDGUN IN PUBLIC UNDER THE INFLUENCE 2018004380
4/18/2018 0301 RHODES, DUSTIN CHARLES W M 40 18.2-268.3 REFUSE BLOOD/BREATH TEST 2018004380
4/18/2018 1155 SCOTT, JAWAUN STANLEY B M 26 46.2-896 HIT & RUN - UNATTENDED VEH 2018003681
4/18/2018 1155 SCOTT, JAWAUN STANLEY B M 26 46.2-301 DRIVING W/SUSPENDED OR REVOKED LICENSE 2018003681
4/18/2018 1155 SCOTT, JAWAUN STANLEY B M 26 18.2-456 CONTEMPT OF COURT
4/18/2018 1300 GATLING, QUINTELLO LAMONT B M 42 19.2-152.4:1[F] REVOCATION OF PRETRIAL RELEASE
4/18/2018 1300 GATLING, QUINTELLO LAMONT B M 42 18.2-250|[F] POSSESSION OF CONTROLLED SUBSTANCES 2016014663
4/18/2018 1300 GATLING, QUINTELLO LAMONT B M 42 19.2-128|[F] FAIL TO APPEAR ON FELONY CHARGE
4/18/2018 1300 GATLING, QUINTELLO LAMONT B M 42 19.2-306|[F] REVOCATION OF SUSPENDED SENTENCE AND PROBATION
4/18/2018 1305 THOMPSON, ANTONIO DELONTA B M 18 18.2-250.1 POSSESSION OF MARIJUANA 2018004404
4/18/2018 1422 WHARTON, RONRECUS HAROLD B M 31 19.2-306|[F] REVOCATION OF SUSPENDED SENTENCE AND PROBATION
4/18/2018 1515 WALKER-HOLT, LESLIE LOUISE B F 46 18.2-102|[F] UNAUTHORIZED USE OF VEHICLE, BOAT OR ANIMAL
4/18/2018 1515 WALKER-HOLT, LESLIE LOUISE B F 46 18.2-427 PROFANE, THREATENING LANGUAGE OVER PUBLIC AIRWAY
4/18/2018 1610 GIBSON, ADDIE DEAN W F 60 18.2-460[M] OBSTRUCT/RESIST
4/18/2018 1632 LEWIS, TERRY LEE SR B M 42 1-200 COMMON LAW 2018004402
4/18/2018 1632 LEWIS, TERRY LEE SR B M 42 18.2-137|[M] DESTRUCTION OF PROPERTY, GENERAL 2018004402
4/18/2018 1700 MACK, RONNIE LEE B M 56 18.2-248|[F] MANUF, SALE, POSSESSION CONTROLLED SUBSTANCE 2018003643
4/18/2018 1713 MOURAN, JAMES THOMAS B M 56 19.2-306|[F] REVOCATION OF SUSPENDED SENTENCE AND PROBATION
4/18/2018 1725 VALENTINE, JHAMIE TREKWON B M 20 18.2-51 FELONIOUS ASSAULT 2018004333
4/18/2018 1725 VALENTINE, JHAMIE TREKWON B M 20 18.2-53.1 USE OR DISPLAY FIREARM IN COMMISSION OF 2018004333
4/18/2018 1725 VALENTINE, JHAMIE TREKWON B M 20 18.2-282|[M] BRANDISHING FIREARM 2018004333
4/18/2018 2046 MARKS, ELIJAH EUGENE B M 19 18.2-282|[M] BRANDISHING FIREARM 2018004036
4/18/2018 2046 MARKS, ELIJAH EUGENE B M 19 18.2-280|[F] DISCHARGE FIREARM -BODILY HARM OR ON SCHOOL PROP 2018004036
4/18/2018 2046 MARKS, ELIJAH EUGENE B M 19 18.2-308.2 POSSESS, TRANSPORT FIREARMS BY CONVICTED 2018004036
4/18/2018 2318 FREEMAN, JOHNNIE CLEVELAND GORE B M 29 18.2-308.2 POSSESS, TRANSPORT FIREARMS BY CONVICTED FELONS 2018004431
4/18/2018 2318 FREEMAN, JOHNNIE CLEVELAND GORE B M 29 18.2-308|[F] CARRYING CONCEALED WEAPON -SUBSQ OFFENSE 2018004431
4/18/2018 2318 FREEMAN, JOHNNIE CLEVELAND GORE B M 29 18.2-460[M] OBSTRUCT/RESIST 2018004431
4/18/2018 2318 FREEMAN, JOHNNIE CLEVELAND GORE B M 29 18.2-119 TRESPASSING 2018004431
4/18/2018 8:00:00 AM 0001 ROUNDTREE, SAVLAS DOENITA B M 44 18.2-250.1 POSSESSION OF MARIJUANA 2018004374
4/18/2018 8:00:00 AM 0001 ROUNDTREE, SAVLAS DOENITA B M 44 22-395.8 SPEEDING - 35 ZONE HIGHWAYS IN CITY, EXCEPT BUS/RES. DIST. 2018004374
4/18/2018 1:05:00 PM 1305 WASHINGTON, ERICA NICOLE B F 35 18.2-456 CONTEMPT OF COURT
4/19/2018 0117 FERGUSON, LAURA RAYE W F 45 18.2-456 CONTEMPT OF COURT
4/19/2018 0117 FERGUSON, LAURA RAYE W F 45 19.2-306|[F] REVOCATION OF SUSPENDED SENTENCE AND PROBATION
4/19/2018 0117 FERGUSON, LAURA RAYE W F 45 18.2-250|[F] POSSESSION OF CONTROLLED SUBSTANCES 2018004435
4/19/2018 0117 FERGUSON, LAURA RAYE W F 45 46.2-301 DRIVING W/SUSPENDED OR REVOKED LICENSE 2018004435
4/19/2018 0205 WILBURN, COURTNEY LYNN W F 18 22-291 BICYCLES MUST STAY AS FAR RIGHT AS POSSIBLE ON ROADWAY 2018004438
4/19/2018 0205 WILBURN, COURTNEY LYNN W F 18 46.2-1015 BICYCLES - HEADLIGHT REQUIRED WHEN IN USE BETWEEN SUNSET AND 2018004438
4/19/2018 0205 WILBURN, COURTNEY LYNN W F 18 4.1-305 UNLAWFUL PURCHASE OR POSSESS ALCOHOLIC BEVERAGE 2018004438
4/19/2018 1408 PEAY, JA-ROD BRYAN B M 33 18.2-57|[M] ASSAULT & BATTERY
4/19/2018 1410 OLDFIELD-ISHMAEL, AMBER MARIE W F 29 18.2-258.1 OBTAINING DRUGS BY FRAUD
4/19/2018 1415 SMITH, CHRISTOPHER SHAWN W M 41 18.2-258.1 OBTAINING DRUGS BY FRAUD 2018003487
4/19/2018 1445 BLOUNT, RICHARD ANTHONY JR B M 28 18.2-456 CONTEMPT OF COURT
4/19/2018 1459 WEATHERSPOON, ANTONIO WAYNE B M 30 18.2-456 CONTEMPT OF COURT
4/19/2018 1525 HARRIS, SAMUEL JUNIOR B M 63 18.2-308.2:2|[F] FIREARM PURCHASE OR DEALER VIOLATION
4/19/2018 1949 COLTRANE, DANDRAE B M 39 18.2-57|[M] ASSAULT & BATTERY 2018003167
4/19/2018 2030 YOUNG, CHERESA DENISE B F 47 18.2-137|[M] DESTRUCTION OF PROPERTY, GENERAL 2018004384
4/19/2018 2135 WALLACE, BILLY KEITH W M 45 18.2-96|[M] PETIT LARCENY
4/19/2018 2135 WALLACE, BILLY KEITH W M 45 18.2-95 GRAND LARCENY
4/19/2018 2217 BELLFLOWER, MAGGIE LOUISE W F 31 18.2-95 GRAND LARCENY
4/19/2018 2217 BELLFLOWER, MAGGIE LOUISE W F 31 18.2-456 CONTEMPT OF COURT
4/19/2018 2217 BELLFLOWER, MAGGIE LOUISE W F 31 18.2-178|[M] OBTAINING MONEY BY FALSE PRETENSES 2018004480
4/19/2018 2217 BELLFLOWER, MAGGIE LOUISE W F 31 18.2-250|[F] POSSESSION OF CONTROLLED SUBSTANCES 2018004480
4/19/2018 2217 BELLFLOWER, MAGGIE LOUISE W F 31 19.2-82.1 FALSE IDENTIFY SELF TO LAW ENFORCEMENT 2018004480
4/19/2018 6:55:00 AM 0655 BROWN, CHRYSTAL TAMARA B F 44 18.2-427 PROFANE, THREATENING LANGUAGE OVER PUBLIC AIRWAY 2016007579
4/19/2018 7:09:00 PM 1909 COLTRANE, DANDRAE B M 39 18.2-250.1 POSSESSION OF MARIJUANA 2018004476
4/20/2018 0039 JACKSON, TERRY QUANTEZ B M 24 18.2-248.1|[F] SALE, DISTRIBUTE MARIJUANA 2018004485
4/20/2018 0039 JACKSON, TERRY QUANTEZ B M 24 46.2-301 DRIVING W/SUSPENDED OR REVOKED LICENSE 2018004485
4/20/2018 0039 JACKSON, TERRY QUANTEZ B M 24 46.2-1003 USE UNSAFE EQUIPMENT 2018004485
4/20/2018 0039 JACKSON, TERRY QUANTEZ B M 24 46.2-1094 FAILURE TO WEAR SEATBELT 2018004485
4/20/2018 0213 TERRY, ANTWAIN LAMONT B M 40 19.2-306|[F] REVOCATION OF SUSPENDED SENTENCE AND PROBATION
4/20/2018 0542 PORTER, SHELDON MARCUS B M 35 18.2-57.2|[M] ASSAULT & BATTERY - FAMILY MEMBER 2018004489
4/20/2018 1019 SALMON, COREY LAMAR B M 22 18.2-456 CONTEMPT OF COURT
4/20/2018 1058 GRIER, SHANIA DENISE B F 18 18.2-172 FORGING, UTTERING
4/20/2018 1058 GRIER, SHANIA DENISE B F 18 18.2-178|[F] OBTAINING MONEY BY FALSE PRETENSES
4/20/2018 1725 CIRCOSTA, THOMAS JAMES B M 41 18.2-456 CONTEMPT OF COURT
4/20/2018 1837 JONES, LEONARD B M 47 24-258 PUBLIC DRUNKENNESS 2018004510
4/20/2018 2050 TATMAN, PATRICK RUSSELL W M 42 18.2-57.2|[M] ASSAULT & BATTERY - FAMILY MEMBER
4/20/2018 2248 YOUNG, SCHAWANDA LANECE B F 39 18.2-256|[F] CONSPIRACY TO VIOLATE DRUG CONTROL ACT -FELONY 2018004506
4/20/2018 2248 YOUNG, SCHAWANDA LANECE B F 39 18.2-258.02 MAINTAINING A FORTIFIED DRUG HOUSE 2018004506
4/20/2018 2248 YOUNG, SCHAWANDA LANECE B F 39 18.2-250|[F] POSSESSION OF CONTROLLED SUBSTANCES 2018004506
4/20/2018 2250 CIRCOSTA, THOMAS JAMES B M 41 19.2-306|[F] REVOCATION OF SUSPENDED SENTENCE AND PROBATION
4/20/2018 2250 CIRCOSTA, THOMAS JAMES B M 41 18.2-308.2 POSSESS, TRANSPORT FIREARMS BY CONVICTED FELONS 2018004506
4/20/2018 2250 CIRCOSTA, THOMAS JAMES B M 41 18.2-250|[F] POSSESSION OF CONTROLLED SUBSTANCES 2018004506
4/20/2018 2250 CIRCOSTA, THOMAS JAMES B M 41 18.2-460[M] OBSTRUCT/RESIST 2018004506
4/20/2018 2250 CIRCOSTA, THOMAS JAMES B M 41 18.2-300 UNLAWFUL POSSESSION OR USE OF SAWED OFF SHOTGUN 2018004506
4/20/2018 2250 CIRCOSTA, THOMAS JAMES B M 41 18.2-258.02 MAINTAINING A FORTIFIED DRUG HOUSE 2018004506
4/20/2018 2250 CIRCOSTA, THOMAS JAMES B M 41 18.2-308.4 POSSESS FIREARM WHILE IN POSSESSION OF DRUGS 2018004506
4/20/2018 2250 CIRCOSTA, THOMAS JAMES B M 41 18.2-248|[F] MANUF, SALE, POSSESSION CONTROLLED SUBSTANCE 2018004506
4/20/2018 2302 MARTIN, MILES LEVON B M 26 19.2-128|[M] FAIL TO APPEAR ON MISDEMEANOR CHARGE
4/20/2018 10:58:00 AM 1058 COLTRANE, DANDRAE B M 39 18.2-119 TRESPASSING
4/20/2018 10:58:00 AM 1058 COLTRANE, DANDRAE B M 39 18.2-137|[M] DESTRUCTION OF PROPERTY, GENERAL
4/20/2018 8:45:00 PM 2045 WOODSON, QUAZONTE ALFONZO B M 21 19.2-306|[F] REVOCATION OF SUSPENDED SENTENCE AND PROBATION
4/21/2018 0012 COPES, DESIRE B F 40 18.2-57.2|[M] ASSAULT & BATTERY - FAMILY MEMBER 2018004523
4/21/2018 0255 MORRIS, KYNEISHIA SHANTA B F 35 18.2-250|[F] POSSESSION OF CONTROLLED SUBSTANCES 2018004528
4/21/2018 0255 WARREN, WILLIAM EDWARD JR B M 50 18.2-248.1|[F] SALE, DISTRIBUTE MARIJUANA 2018004528
4/21/2018 0255 WARREN, WILLIAM EDWARD JR B M 50 18.2-250|[F] POSSESSION OF CONTROLLED SUBSTANCES 2018004528
4/21/2018 0332 WADDELL, MICHAEL ORLANDO B M 31 18.2-266|[M] DRIVING UNDER THE INFLUENCE OF ALCOHOL 2018004530
4/21/2018 0645 CULPEPPER, THOMAS LEE JR B M 42 18.2-250.1 POSSESSION OF MARIJUANA 2018004535
4/21/2018 0723 WOODARD, LATASHA MICHELLE B F 33 18.2-256|[F] CONSPIRACY TO VIOLATE DRUG CONTROL ACT -FELONY 2018004532
4/21/2018 0730 STREET, KEVIN TERRELL B M 42 18.2-248.1|[F] SALE, DISTRIBUTE MARIJUANA 2018004532
4/21/2018 0735 FARMER, BRIAN ANTOINE B M 39 18.2-248.1|[F] SALE, DISTRIBUTE MARIJUANA 2018004532
4/21/2018 0735 FARMER, BRIAN ANTOINE B M 39 46.2-817|[F] ELUDING POLICE - ENDANGER PERSONS OR POLICE CAR 2018004532
4/21/2018 0735 FARMER, BRIAN ANTOINE B M 39 18.2-460[M] OBSTRUCT/RESIST 2018004532
4/21/2018 0735 FARMER, BRIAN ANTOINE B M 39 18.2-266|[M] DRIVING UNDER THE INFLUENCE OF ALCOHOL 2018004532
4/21/2018 0735 FARMER, BRIAN ANTOINE B M 39 18.2-268.3 REFUSE BLOOD/BREATH TEST 2018004532
4/21/2018 0735 FARMER, BRIAN ANTOINE B M 39 46.2-301 DRIVING W/SUSPENDED OR REVOKED LICENSE 2018004532
4/21/2018 0950 MCCOY, PATRICK ROBERT B M 51 19.2-123 VIOLATE CONDITION OF RELEASE
4/21/2018 1319 PETTAWAY, KISSIE B F 39 18.2-96|[M] PETIT LARCENY
4/21/2018 1831 PENNY, MELVIN B M 56 18.2-456 CONTEMPT OF COURT
4/21/2018 1905 HATTON, QUENTIN TERRENCE B M 36 46.2-894 ACCIDENTS - HIT AND RUN RESULTING IN INJURY AND/OR DEATH [FE
4/21/2018 2110 JEAN, REBECCA YVONNE W F 53 24-258 PUBLIC DRUNKENNESS
4/21/2018 2350 HOLCOMB, SHANNON DELL W M 41 16.1-278.16 FAIL TO COMPLY WITH SUPPORT OBLIGATIONS
4/21/2018 2350 HOLCOMB, SHANNON DELL W M 41 18.2-456 CONTEMPT OF COURT
4/21/2018 7:37:00 PM 1937 PENNY, MELVIN B M 56 18.2-57|[M] ASSAULT & BATTERY 2018004559
4/22/2018 0334 GENEREUX, ROLAND FRANK W M 29 18.2-57.2|[M] ASSAULT & BATTERY - FAMILY MEMBER 2018004572
4/22/2018 0742 BELL, ANTWAN DESHAWN B M 25 18.2-308.2 POSSESS, TRANSPORT FIREARMS BY CONVICTED FELONS 2018004577
4/22/2018 0742 BELL, ANTWAN DESHAWN B M 25 18.2-56.1 RECKLESS HANDLING OF FIREARM 2018004577
4/22/2018 0900 HARGROVE, LARRY JR B M 53 18.2-456 CONTEMPT OF COURT
4/22/2018 1109 POWELL, CLARENCE GREGORY B M 50 24-258 PUBLIC DRUNKENNESS 2018004595
4/22/2018 1630 RUSSELL, DAWN MARIE B F 34 18.2-266 DRIVING UNDER THE INFLUENCE OF ALCOHOL 2018004607
4/22/2018 1835 KNIGHT, ROBERT CHARLES JR B M 35 24-258 PUBLIC DRUNKENNESS
4/22/2018 2045 DREWRY, FRANK III B M 60 19.2-128|[F] FAIL TO APPEAR ON FELONY CHARGE
4/22/2018 2056 WILLIAMS, CECIL GARON W M 33 18.2-250|[F] POSSESSION OF CONTROLLED SUBSTANCES 2018004612
4/22/2018 2113 CAMPBELL, JAMIE LYNN W F 26 18.2-119 TRESPASSING 2018004423
4/22/2018 2113 CAMPBELL, JAMIE LYNN W F 26 18.2-102|[M] UNAUTHORIZED USE OF VEHICLE, BOAT OR ANIMAL 2018004611
4/22/2018 2300 ARMSTRONG, MICHAEL EUGENE B M 33 18.2-57.2|[F] ASSAULT & BATTERY - FAMILY MEMBER (3RD OFFENSE) 2018004615
4/22/2018 2320 SHIELDS, LAVADIS S B M 28 18.2-57.2|[M] ASSAULT & BATTERY - FAMILY MEMBER 2018004613
4/22/2018 2320 SHIELDS, LAVADIS S B M 28 18.2-137|[M] DESTRUCTION OF PROPERTY, GENERAL 2018004613
4/23/2018 0003 SMITH, EMMANUEL MILORE B M 38 18.2-57.2|[M] ASSAULT & BATTERY - FAMILY MEMBER 2018004616
4/23/2018 0014 PARKER, ALFRED SR B M 63 18.2-57.2|[M] ASSAULT & BATTERY - FAMILY MEMBER 2018004576
4/23/2018 0014 PARKER, ALFRED SR B M 63 16.1-279.1 PROTECTIVE ORDER IN CASES OF FAMILY ABUSE
4/23/2018 0240 MOODY, JAMES CALVIN B M 55 18.2-212 FALSE ALARM FOR AMBULANCE OR FIRE 2018004339
4/23/2018 0825 WILLIAMS, MARCUS JAMAL B M 28 19.2-306|[F] REVOCATION OF SUSPENDED SENTENCE AND PROBATION
4/23/2018 1228 MOORE, WILLIAM MARQUIE B M 32 18.2-57.2|[M] ASSAULT & BATTERY - FAMILY MEMBER
4/23/2018 1902 HOOD, DEVON JOSHUA B M 27 18.2-57|[M] ASSAULT & BATTERY 2018004229
4/23/2018 5:00:00 PM 1700 MITCHELL, MICHAEL ANTIONE JR B M 18 16.1-291 REVOCATION OR MODIFICATION OF PROBATION,
4/23/2018 5:00:00 PM 1700 MITCHELL, MICHAEL ANTIONE JR B M 18 18.2-53.1 USE OR DISPLAY FIREARM IN COMMISSION OF 2018004121
4/23/2018 5:00:00 PM 1700 MITCHELL, MICHAEL ANTIONE JR B M 18 18.2-58 ROBBERY 2018004121
4/23/2018 5:00:00 PM 1700 MITCHELL, MICHAEL ANTIONE JR B M 18 18.2-308.2 POSSESS, TRANSPORT FIREARMS BY CONVICTED 2018004121
4/23/2018 5:00:00 PM 1700 MITCHELL, MICHAEL ANTIONE JR B M 18 18.2-22 CONSPIRACY TO COMMIT FELONY 2018004121
4/23/2018 5:00:00 PM 1700 MITCHELL, MICHAEL ANTIONE JR B M 18 18.2-53.1 USE OR DISPLAY FIREARM IN COMMISSION OF FELONY
4/23/2018 5:00:00 PM 1700 MITCHELL, MICHAEL ANTIONE JR B M 18 18.2-308.2 POSSESS, TRANSPORT FIREARMS BY CONVICTED FELONS
4/23/2018 5:00:00 PM 1700 MITCHELL, MICHAEL ANTIONE JR B M 18 18.2-280|[M] DISCHARGE FIREARM IN PUBLIC PLACE
4/23/2018 5:00:00 PM 1700 MITCHELL, MICHAEL ANTIONE JR B M 18 18.2-95 GRAND LARCENY
4/23/2018 5:00:00 PM 1700 MITCHELL, MICHAEL ANTIONE JR B M 18 18.2-137|[F] DESTRUCTION OF PROPERTY GENERAL -VALUE >=$1000
4/23/2018 5:00:00 PM 1700 MITCHELL, MICHAEL ANTIONE JR B M 18 18.2-152.7:1 USE COMPUTER FOR HARASSMENT
4/23/2018 5:00:00 PM 1700 MITCHELL, MICHAEL ANTIONE JR B M 18 18.2-60.1 THREATENING GOVERNOR OR FAMILY
4/23/2018 5:00:00 PM 1700 MITCHELL, MICHAEL ANTIONE JR B M 18 18.2-282|[M] BRANDISHING FIREARM
4/23/2018 5:00:00 PM 1700 MITCHELL, MICHAEL ANTIONE JR B M 18 18.2-57|[M] ASSAULT & BATTERY
4/23/2018 8:45:00 PM 2045 BRANCH, CAMREN MOLLIE B F 24 18.2-456 CONTEMPT OF COURT
4/24/2018 0055 DOTSON, TREMAYNE LEVAR B M 39 18.2-248.1:1[F] POSSESSION WITH INTENT TO DISTRIBUTE SYNTHETIC CANNABINOIDS 2018004664
4/24/2018 0055 DOTSON, TREMAYNE LEVAR B M 39 18.2-250.1 POSSESSION OF MARIJUANA 2018004664
4/24/2018 0317 STOKES, LARRY DARNELL B M 59 18.2-456 CONTEMPT OF COURT
4/24/2018 0405 BOONE, JEFFREY WAYNE W M 52 18.2-250|[F] POSSESSION OF CONTROLLED SUBSTANCES 2018004669
4/24/2018 0448 COLTRANE, DANDRAE DAQUAN B M 20 4.1-305 UNLAWFUL PURCHASE OR POSSESS ALCOHOLIC BEVERAGE
4/24/2018 1030 MITCHELL, CHANTA MONIQUE B F 30 19.2-306|[F] REVOCATION OF SUSPENDED SENTENCE AND PROBATION
4/24/2018 1126 HOGGARD, NA`QUAN MARQUIS B M 26 18.2-456 CONTEMPT OF COURT
4/24/2018 1126 HOGGARD, NA`QUAN MARQUIS B M 26 17-24 FAIL TO MAINTAIN PREMISES
4/24/2018 1235 BEAMON, MATTHEW KENNY B M 23 19.2-306|[M] REVOCATION OF SUSPENDED SENTENCE AND PROBATION
4/24/2018 1242 JOHNSON, JAYLOND LYDELL B M 25 18.2-60.4 [M] VIOLATION OF STALKING PROTECTIVE ORDER
4/24/2018 1322 GRANT, BREON ANTONIO B M 34 18.2-91|[F] BREAKING & ENTER W/INT TO COMMIT FELONY 2018004493
4/24/2018 1322 GRANT, BREON ANTONIO B M 34 18.2-57|[M] ASSAULT & BATTERY 2018004493
4/24/2018 1343 HINTON, JALEN JUWAN B M 21 18.2-456 CONTEMPT OF COURT
4/24/2018 1407 BUCKNER, JAMAINE KESHAWN B M 26 19.2-303.3 VIOLATION OF COMMUNITY CORRECTIONS PROGRAM
4/24/2018 1432 TYLER, MELVIN B M 47 19.2-306|[F] REVOCATION OF SUSPENDED SENTENCE AND PROBATION
4/24/2018 1545 COBB, PRINCE DONNELL B M 53 18.2-456 CONTEMPT OF COURT
4/24/2018 1600 ROBINSON, DAVON LEMUEL B M 20 19.2-128|[M] FAIL TO APPEAR ON MISDEMEANOR CHARGE
4/24/2018 1600 ROBINSON, DAVON LEMUEL B M 20 18.2-119 TRESPASSING 2018004688
4/24/2018 1735 STITH, MARQUEL LORENZO B M 20 18.2-456 CONTEMPT OF COURT
4/24/2018 2045 HARSLEY, FENTON SR B M 57 18.2-57.2|[M] ASSAULT & BATTERY - FAMILY MEMBER 2018004389
4/24/2018 2045 HARSLEY, FENTON SR B M 57 18.2-248|[F] MANUF, SALE, POSSESSION CONTROLLED SUBSTANCE 2018004090
4/24/2018 2151 ARGAHRIGHT, CODY JAMES W M 24 18.2-56.1 RECKLESS HANDLING OF FIREARM 2018004703
4/24/2018 8:23:00 PM 2023 STOKES, LARRY DARNELL B M 59 18.2-456 CONTEMPT OF COURT
4/24/2018 10:00:00 PM 2200 WINSTON, MARCUS STEPHAN B M 22 18.2-137|[M] DESTRUCTION OF PROPERTY, GENERAL
4/24/2018 10:05:00 PM 2205 BROWN, AMUDA B M 23 18.2-456 CONTEMPT OF COURT
4/24/2018 11:53:00 PM 2353 MOORE, JOSEPH ANDRE B M 34 19.2-306|[M] REVOCATION OF SUSPENDED SENTENCE AND PROBATION
4/24/2018 11:53:00 PM 2353 MOORE, JOSEPH ANDRE B M 34 18.2-271 FAIL TO COMPLY WITH VASAP
4/25/2018 0001 DANIEL, CHAUNCEY SEBASTIAN B M 26 18.2-57.2|[M] ASSAULT & BATTERY - FAMILY MEMBER 2018004705
4/25/2018 0110 SMITH, ANTHONY A B M 21 18.2-248.1|[M] SALE, DISTRIBUTE MARIJUANA 2018004707
4/25/2018 0231 WOLF, VICTORIA MAE W F 28 18.2-119 TRESPASSING
4/25/2018 0403 DABNEY, PAUL STEVENS W M 27 19.2-306|[M] REVOCATION OF SUSPENDED SENTENCE AND PROBATION
4/25/2018 1117 WILLIAMS, DAMAIN MAREESE B M 34 18.2-456 CONTEMPT OF COURT 9999250499
4/25/2018 1145 MONTOYA, MATTHEW RYAN W M 27 19.2-306|[F] REVOCATION OF SUSPENDED SENTENCE AND PROBATION
4/25/2018 1234 HALL, CARLTON B M 52 18.2-456 CONTEMPT OF COURT
4/25/2018 1240 CREW, KEITH B M 49 18.2-456 CONTEMPT OF COURT
4/25/2018 1242 MACK, RONNIE LEE B M 56 19.2-152.4:1[F] REVOCATION OF PRETRIAL RELEASE
4/25/2018 1253 SMITH, JASON LEE W M 36 18.2-456 CONTEMPT OF COURT
4/25/2018 1335 GARDNER, TRACY ALLEN B M 50 24-253 ALCOHOL - OPEN CONTAINER OF AN ALCOHOLIC BEVERAGE IN ANY PUB 2018004728
4/25/2018 1428 ATKINS, KAEVON DIONTAE B M 19 18.2-53.1 USE OR DISPLAY FIREARM IN COMMISSION OF FELONY 2018004666
4/25/2018 1428 ATKINS, KAEVON DIONTAE B M 19 18.2-58 ROBBERY 2018004666
4/25/2018 1428 ATKINS, KAEVON DIONTAE B M 19 18.2-371 CONTRIBUTING TO THE DELINQUENCY OF A MINOR 2018004714
4/25/2018 1428 ATKINS, KAEVON DIONTAE B M 19 18.2-119 TRESPASSING 2018004680
4/25/2018 1517 BURCH, TYLER KIP B M 20 18.2-456 CONTEMPT OF COURT
4/25/2018 1530 THOMPSON, LINDA JONES W F 75 18.2-137|[M] DESTRUCTION OF PROPERTY, GENERAL
4/25/2018 1658 LEWIS, TERRY LEE SR B M 42 19.2-123 VIOLATE CONDITION OF RELEASE
4/25/2018 1720 DAVIS, TERELL ANTHONY B M 30 18.2-102|[F] UNAUTHORIZED USE OF VEHICLE, BOAT OR ANIMAL
4/25/2018 1720 DAVIS, TERELL ANTHONY B M 30 18.2-57.2|[M] ASSAULT & BATTERY - FAMILY MEMBER
4/25/2018 1720 DAVIS, TERELL ANTHONY B M 30 18.2-137|[M] DESTRUCTION OF PROPERTY, GENERAL
4/25/2018 1937 SPRUILL, CURTIS ANTONIO B M 50 24-253 ALCOHOL - OPEN CONTAINER OF AN ALCOHOLIC BEVERAGE IN ANY PUB 2018004746
4/25/2018 2000 SMITH, ERIC LEVANTAE B M 19 18.2-57.2|[M] ASSAULT & BATTERY - FAMILY MEMBER 2018004742
4/25/2018 2035 ELLIOTT, REGINALD LEWIS JR B M 53 18.2-460[M] OBSTRUCT/RESIST
4/25/2018 2035 ELLIOTT, REGINALD LEWIS JR B M 53 24-258 PUBLIC DRUNKENNESS
4/25/2018 2127 WINSTON, MARCUS STEPHAN B M 22 18.2-57.2|[M] ASSAULT & BATTERY - FAMILY MEMBER 2018004745
4/25/2018 2240 NIBBLETT, DONNIE LYNDON B M 57 18.2-250|[F] POSSESSION OF CONTROLLED SUBSTANCES 2018004748
4/25/2018 2240 NIBBLETT, DONNIE LYNDON B M 57 46.2-357(B)(1) OPERATE MOTOR VEH - HABIT OFFENDR NO ENDANGERMENT
4/25/2018 2240 NIBBLETT, DONNIE LYNDON B M 57 46.2-613 VEHICLE REGISTRATION VIOLATIONS
4/25/2018 2246 ARD, KENNETH ROOSEVELT B M 53 18.2-250|[F] POSSESSION OF CONTROLLED SUBSTANCES 2018004748
4/25/2018 2255 JEAN, REBECCA YVONNE W F 53 24-258 PUBLIC DRUNKENNESS
4/25/2018 2255 JEAN, REBECCA YVONNE W F 53 24-253 ALCOHOL - OPEN CONTAINER OF AN ALCOHOLIC BEVERAGE IN ANY PUB
4/25/2018 2309 SHOUN, CARLYN KAY W F 46 18.2-456 CONTEMPT OF COURT
4/25/2018 5:09:00 AM 0509 JACKSON, CHAY CHANTEL B F 34 18.2-57|[M] ASSAULT & BATTERY
4/25/2018 5:09:00 AM 0509 JACKSON, CHAY CHANTEL B F 34 18.2-427 PROFANE, THREATENING LANGUAGE OVER PUBLIC AIRWAY
4/25/2018 10:35:00 AM 1035 DICKERSON, DARLENE B F 58 18.2-456 CONTEMPT OF COURT
4/25/2018 12:35:00 PM 1235 GARDNER, TRACY ALLEN B M 50 24-253 ALCOHOL - OPEN CONTAINER OF AN ALCOHOLIC BEVERAGE IN ANY PUB 2018004724
4/25/2018 1:47:00 PM 1347 THOMPSON, LISA ANN W F 45 18.2-371 CONTRIBUTING TO THE DELINQUENCY OF A MINOR
4/26/2018 0236 LEE, YVETTE DORRIEA B F 54 18.2-57.2|[M] ASSAULT & BATTERY - FAMILY MEMBER
4/26/2018 0236 LEE, YVETTE DORRIEA B F 54 16.1-279.1 PROTECTIVE ORDER IN CASES OF FAMILY ABUS
4/26/2018 0615 NEWBY, JAMES EDWARD JR B M 31 18.2-456 CONTEMPT OF COURT 9999250419
4/26/2018 0910 DARDEN, WALTER B M 57 18.2-456 CONTEMPT OF COURT
4/26/2018 1038 HALL-RANDALL, DIMANTRE LASHAWN B M 19 19.2-306|[F] REVOCATION OF SUSPENDED SENTENCE AND PROBATION
4/26/2018 1133 ASHWORTH, WENDY ELLEN W F 42 18.2-192 CREDIT CARD THEFT
4/26/2018 1133 ASHWORTH, WENDY ELLEN W F 42 18.2-95 GRAND LARCENY
4/26/2018 1133 ASHWORTH, WENDY ELLEN W F 42 18.2-178|[M] OBTAINING MONEY BY FALSE PRETENSES
4/26/2018 1133 ASHWORTH, WENDY ELLEN W F 42 18.2-178|[F] OBTAINING MONEY BY FALSE PRETENSES
4/26/2018 1133 ASHWORTH, WENDY ELLEN W F 42 18.2-186.3 IDENTITY THEFT: USE TO AVOID ARREST
4/26/2018 1133 ASHWORTH, WENDY ELLEN W F 42 18.2-172 FORGING, UTTERING
4/26/2018 1133 ASHWORTH, WENDY ELLEN W F 42 18.2-58 ROBBERY
4/26/2018 1155 RICKS, DOMINIC DANYALE B M 45 18.2-456 CONTEMPT OF COURT
4/26/2018 1233 RAMLATCHAN, SAMDEO I M 39 46.2-301 DRIVING W/SUSPENDED OR REVOKED LICENSE
4/26/2018 1233 RAMLATCHAN, SAMDEO I M 39 19.2-128|[M] FAIL TO APPEAR ON MISDEMEANOR CHARGE
4/26/2018 1233 RAMLATCHAN, SAMDEO I M 39 46.2-816 FOLLOWING TOO CLOSELY
4/26/2018 1724 ABUL-MUSAWIR, ABDUR B M 31 46.2-938 FAILURE TO APPEAR FOR TRAFFIC SUMMONS
4/26/2018 1830 GREEN, ANTHONY LEE B M 43 18.2-456 CONTEMPT OF COURT 9999250424
4/26/2018 1830 GAMBRELL, BOBBY LEWIS B M 63 18.2-250|[F] POSSESSION OF CONTROLLED SUBSTANCES 2018004778
4/26/2018 1830 GAMBRELL, BOBBY LEWIS B M 63 4.1-308 DRINKING ALCOHOL IN PUBLIC 2018004778
4/26/2018 1944 ANDERSON, DARIUS ANDRE B M 26 24-206 URINATE OR DEFECATE IN PUBLIC [CLASS 4 MISD]
4/26/2018 1959 CARR, CURTIS EDWARD B M 53 18.2-108|[M] RECEIVING STOLEN GOODS 2018001118
4/26/2018 2112 SPRUILL, CURTIS ANTONIO B M 50 24-258 PUBLIC DRUNKENNESS
4/26/2018 2112 SPRUILL, CURTIS ANTONIO B M 50 24-253 ALCOHOL - OPEN CONTAINER OF AN ALCOHOLIC BEVERAGE IN ANY PUB
4/26/2018 2116 KERSEY, RAYVON B M 49 18.2-95 GRAND LARCENY 2017016697
4/26/2018 2225 BROOKS, KATHERINE LISA W F 37 18.2-456 CONTEMPT OF COURT 9999250478
4/26/2018 2303 MCDOUGLE, DERRICK TREMEL B M 48 18.2-119 TRESPASSING
4/26/2018 9:13:00 AM 0913 JACKSON, CARLENIA B F 57 18.2-96|[M] PETIT LARCENY
4/26/2018 2:00:00 PM 1400 ARNOLD, ALEXIS MICHELLE W F 18 18.2-178|[M] OBTAINING MONEY BY FALSE PRETENSES 2017015635
4/26/2018 2:00:00 PM 1400 ARNOLD, ALEXIS MICHELLE W F 18 18.2-108.01 STOLEN PROPERTY: W/ INTENT TO SELL, LARCENY>$200 2017015635
4/26/2018 2:00:00 PM 1400 ARNOLD, ALEXIS MICHELLE W F 18 18.2-95 GRAND LARCENY 2017015635
4/26/2018 2:00:00 PM 1400 ARNOLD, ALEXIS MICHELLE W F 18 18.2-91|[F] BREAKING & ENTER W/INT TO COMMIT FELONY 2017015635
4/27/2018 0250 GUMM, JAMES MATHEW W M 25 18.2-57|[M] ASSAULT & BATTERY 2018004792
4/27/2018 0949 DOWNING, JOSEPH WILLIE B M 37 19.2-306|[F] REVOCATION OF SUSPENDED SENTENCE AND PROBATION
4/27/2018 1000 SAVAGE, JESSICA NICOLE W F 26 19.2-128|[M] FAIL TO APPEAR ON MISDEMEANOR CHARGE
4/27/2018 1317 LOPEZ, DAPHNE GLORIA B F 52 19.2-306|[F] REVOCATION OF SUSPENDED SENTENCE AND PROBATION 9999250425
4/27/2018 1358 MCNEIL, ROBERT MARION B M 35 18.2-102|[F] UNAUTHORIZED USE OF VEHICLE, BOAT OR ANIMAL
4/27/2018 1730 JORDAN, BRANDON DOMINIQUE B M 19 46.2-817|[F] ELUDING POLICE - ENDANGER PERSONS OR POLICE CAR
4/27/2018 1730 JORDAN, BRANDON DOMINIQUE B M 19 18.2-128|[M] TRESPASS ON CHURCH OR SCHOOL PROPERTY
4/27/2018 1730 JORDAN, BRANDON DOMINIQUE B M 19 18.2-95|[V] MOTOR VEHICLE THEFT
4/27/2018 1813 GODWIN, JERROD MAURICE B M 30 18.2-456 CONTEMPT OF COURT 9999250448
4/27/2018 1834 COPPEDGE, ANTHONY JEROME B M 46 18.2-456 CONTEMPT OF COURT
4/27/2018 2100 COBBS, DAVORRIAN MANZIE B M 22 18.2-308.2 POSSESS, TRANSPORT FIREARMS BY CONVICTED FELONS 2018004829
4/27/2018 2103 OWENS, TRAYVONTA WILLIAM B M 20 18.2-308.2 POSSESS, TRANSPORT FIREARMS BY CONVICTED FELONS 2018004829
4/27/2018 2200 CRAWLEY, DYPHER JEROME B M 30 18.2-456 CONTEMPT OF COURT
4/27/2018 2200 WALKER, ANGELA JASMINE B F 28 18.2-460[M] OBSTRUCT/RESIST 2018004836
4/27/2018 2235 TAYLOR SPRINGS, NEDRA TOWANDA B F 56 18.2-57|[M] ASSAULT & BATTERY 2018004834
4/28/2018 0332 SUTER, MARY JUNE W F 36 18.2-102|[F] UNAUTHORIZED USE OF VEHICLE, BOAT OR ANIMAL 2018003263
4/28/2018 0341 PERRY, SYLVIA ANN B F 56 18.2-57.2|[M] ASSAULT & BATTERY - FAMILY MEMBER 2018004842
4/28/2018 0417 SNIPES, JESHAUN AARON B M 25 18.2-57.2|[M] ASSAULT & BATTERY - FAMILY MEMBER 2018004843
4/28/2018 0440 JEAN, REBECCA YVONNE W F 53 24-258 PUBLIC DRUNKENNESS 2018004845
4/28/2018 1700 WILLIAMS, KEVIN VON W M 45 4.1-322 POSSESSION OF ALCOHOL BY INTERDICTED PERSON 2018004863
4/28/2018 1700 WILLIAMS, KEVIN VON W M 45 24-258 PUBLIC DRUNKENNESS 2018004863
4/28/2018 1815 WORRELL, DEMONTE RAYSHAWN B M 28 18.2-119 TRESPASSING 2018004869
4/28/2018 1835 WARREN, CHARLES EDWARD B M 60 18.2-250|[F] POSSESSION OF CONTROLLED SUBSTANCES 2018004865
4/28/2018 1920 THOMPSON, CLARENCE JR B M 48 18.2-95 GRAND LARCENY 2017006706
4/28/2018 1920 THOMPSON, CLARENCE JR B M 48 18.2-57|[M] ASSAULT & BATTERY
4/28/2018 2115 HOLLOWAY, DAVID LAWRENCE W M 37 19.2-306|[F] REVOCATION OF SUSPENDED SENTENCE AND PROBATION 9999250442
4/28/2018 2338 GRANT, MICHAEL EARL W M 20 18.2-57|[M] ASSAULT & BATTERY 2018004874
4/28/2018 2338 GRANT, MICHAEL EARL W M 20 18.2-415 DISORDERLY CONDUCT 2018004874
4/28/2018 2338 GRANT, MICHAEL EARL W M 20 19.2-99|[F] FUGITIVE FROM JUSTICE 2018004874
4/29/2018 0005 COMPTON, RYAN PATRICK W M 29 24-258 PUBLIC DRUNKENNESS 2018004883
4/29/2018 0100 RODGERS, JUNIOUS DEMETRIUS III B M 51 18.2-371.1 ABUSE AND NEGLECT OF CHILDREN 2018004885
4/29/2018 0100 RODGERS, JUNIOUS DEMETRIUS III B M 51 18.2-266 DRIVING UNDER THE INFLUENCE OF ALCOHOL 2018004885
4/29/2018 0315 BEECHER, KIMBERLY WEAVER W F 45 18.2-96|[F] LARCENY OR THEFT (3RD OR SUBSQ OFFENSE)
4/29/2018 0339 REED, DENNIS LASHAWN JR B M 24 18.2-57.2|[M] ASSAULT & BATTERY - FAMILY MEMBER 2018004889
4/29/2018 0456 GRIMES, SHECORA DENISE B F 19 18.2-456 CONTEMPT OF COURT
4/29/2018 0509 BAKER, CHARLES ANTHONY B M 38 18.2-266 DRIVING UNDER THE INFLUENCE OF ALCOHOL 2018004891
4/29/2018 1340 PERSON, ALEXUS BIANCA B F 19 18.2-57.2|[M] ASSAULT & BATTERY - FAMILY MEMBER 2018004752
4/29/2018 1411 YOUNG, YJUAN LATRAY B M 23 18.2-57.2|[M] ASSAULT & BATTERY - FAMILY MEMBER 2018004904
4/29/2018 1641 JEFFERS, CHRISTOPHER STEWART W M 45 18.2-456 CONTEMPT OF COURT 9999250441
4/29/2018 2050 BAINES, KARLSTEN TISHAWN B M 23 18.2-57.2|[M] ASSAULT & BATTERY - FAMILY MEMBER 2018004918
4/29/2018 2130 ELLIOTT, CHRISTOPHER MAURICE B M 31 18.2-456 CONTEMPT OF COURT
4/29/2018 2205 WATKINS, KEONE MAURICE B M 24 18.2-57.2|[M] ASSAULT & BATTERY - FAMILY MEMBER 2018004537
4/29/2018 12:37:00 AM 0001 ATKINS, MARKEIL CARLTICE B F 18 18.2-308.1|[M] POSSESS WEAPON ON SCHOOL PROPERTY 2018003435
4/30/2018 0002 CROSS, DARREN CLINTON B M 39 19.2-306|[F] REVOCATION OF SUSPENDED SENTENCE AND PROBATION
4/30/2018 0330 ALLEN, ANTHONY JARROD B M 47 18.2-456 CONTEMPT OF COURT 9999250498
4/30/2018 0400 WHITE, MAURICE ANDRE B M 50 24-258 PUBLIC DRUNKENNESS
4/30/2018 0615 JOHNSON, JEROME B M 64 19.2-306|[F] REVOCATION OF SUSPENDED SENTENCE AND PROBATION
4/30/2018 0615 JOHNSON, JEROME B M 64 PB-14 PAROLE BOARD WARRANT - PB14
4/30/2018 0633 GRANT, MICHAEL EARL W M 20 46.2-894 ACCIDENTS - HIT AND RUN RESULTING IN INJURY AND/OR DEATH [FE
4/30/2018 0655 ARTIS, BENNIE ANTHONY B M 44 46.2-301 DRIVING W/SUSPENDED OR REVOKED LICENSE 2018004932
4/30/2018 0655 ARTIS, BENNIE ANTHONY B M 44 18.2-266 DRIVING UNDER THE INFLUENCE OF ALCOHOL 2018004932
4/30/2018 0917 FRANKLIN, SHAROD ARIC B M 30 19.2-306|[F] REVOCATION OF SUSPENDED SENTENCE AND PROBATION
4/30/2018 0926 SKEETER, DEMETRIUS ORLANDIA B M 43 19.2-306|[F] REVOCATION OF SUSPENDED SENTENCE AND PROBATION
4/30/2018 0940 CHERRY, BRIAN MAURICE B M 47 18.2-95 GRAND LARCENY 2018004935
4/30/2018 1253 MCCOY, DONALD FRAZIER B M 50 19.2-306|[F] REVOCATION OF SUSPENDED SENTENCE AND PROBATION
4/30/2018 1256 MCCLEARY, JACOB ANDREW W M 25 19.2-123 VIOLATE CONDITION OF RELEASE
4/30/2018 1258 RODRIGUEZ, ALEXIS W M 43 19.2-128|[M] FAIL TO APPEAR ON MISDEMEANOR CHARGE
4/30/2018 1637 JONES, DARION ALEXANDRE B M 21 18.2-456 CONTEMPT OF COURT
4/30/2018 1815 JEAN, REBECCA YVONNE W F 53 4.1-322 POSSESSION OF ALCOHOL BY INTERDICTED PERSON
4/30/2018 2032 ANDERSON, MALIKA S B F 32 18.2-456 CONTEMPT OF COURT
4/30/2018 2159 PARKER, RAIQUAN DAVONTE B M 22 18.2-57.2|[M] ASSAULT & BATTERY - FAMILY MEMBER 2018004933
4/30/2018 2159 PARKER, RAIQUAN DAVONTE B M 22 16.1-279.1 PROTECTIVE ORDER IN CASES OF FAMILY ABUSE
4/30/2018 9:42:00 AM 0942 FARMER, BRIAN ANTOINE B M 39 18.2-456 CONTEMPT OF COURT
4/30/2018 1:07:00 PM 1307 CLEMENTS, BRANDON DEVONTE B M 27 18.2-57.2|[M] ASSAULT & BATTERY - FAMILY MEMBER 2017016796
4/30/2018 5:18:00 PM 1718 MOORE, WILLIAM MARQUIE B M 32 18.2-456 CONTEMPT OF COURT
5/1/2018 0207 MATTOCKS, RICHIE VALENTINO B M 57 24-253 ALCOHOL - OPEN CONTAINER OF AN ALCOHOLIC BEVERAGE IN ANY PUB
5/1/2018 0230 DEBRAUX, CHRISTINA GARCEL B F 25 18.2-96|[F] LARCENY OR THEFT (3RD OR SUBSQ OFFENSE) 2018004992
5/1/2018 0230 DEBRAUX, CHRISTINA GARCEL B F 25 18.2-250|[F] POSSESSION OF CONTROLLED SUBSTANCES 2018004992
5/1/2018 0915 ELLIOTT, TORIANO DEVON B M 43 18.2-456 CONTEMPT OF COURT
5/1/2018 0945 WOODSON, LORITA MELANIE B F 41 16.1-278.16 FAIL TO COMPLY WITH SUPPORT OBLIGATIONS
5/1/2018 1100 JOHNSON, RONNIE LEE JR B M 63 24-253 ALCOHOL - OPEN CONTAINER OF AN ALCOHOLIC BEVERAGE IN ANY PUB 2018005003
5/1/2018 1255 RIDDICK, FERRUS MARQUI B M 45 18.2-57.2|[M] ASSAULT & BATTERY - FAMILY MEMBER 2018004127
5/1/2018 1407 MATTOCKS, RICHIE VALENTINO B M 57 18.2-119 TRESPASSING
5/1/2018 1407 SIMMONS, THOMAS KEITH B M 56 18.2-119 TRESPASSING
5/1/2018 1427 BROWN, JAMES LAMONT B M 49 46.2-357|[F] OPERATE MOTOR VEH - HABITUAL OFFENDER 2018005005
5/1/2018 1427 BROWN, JAMES LAMONT B M 49 46.2-613 VEHICLE REGISTRATION VIOLATIONS 2018005005
5/1/2018 1427 BROWN, JAMES LAMONT B M 49 18.2-460[M] OBSTRUCT/RESIST 2018005005
5/1/2018 1427 BROWN, JAMES LAMONT B M 49 46.2-821 FAIL TO YIELD AT INTERSECTIONS WITH A STOP OR YIELD SIGN 2018005005
5/1/2018 1600 WRIGHT, STEVEN ALLEN W M 25 18.2-111|[F] EMBEZZLEMENT >=$200 2018001075
5/1/2018 1850 YOUNG, ANGEL LYNN DESIREE W F 20 18.2-456 CONTEMPT OF COURT
5/1/2018 1900 COLLINS, VALENCIA ANN B F 38 18.2-250|[F] POSSESSION OF CONTROLLED SUBSTANCES 2018005030
5/1/2018 1930 HILL, SHENISE ANTOINETTE B F 34 18.2-456 CONTEMPT OF COURT
5/1/2018 1930 HILL, SHENISE ANTOINETTE B F 34 19.2-306|[F] REVOCATION OF SUSPENDED SENTENCE AND PROBATION
5/1/2018 1930 HILL, SHENISE ANTOINETTE B F 34 18.2-250|[F] POSSESSION OF CONTROLLED SUBSTANCES 2018005030
5/1/2018 1930 HILL, SHENISE ANTOINETTE B F 34 19.2-82.1 FALSE IDENTIFY SELF TO LAW ENFORCEMENT 2018005030
5/1/2018 2000 WILLIAMS, RONNIE NATHANIEL B M 46 19.2-306|[F] REVOCATION OF SUSPENDED SENTENCE AND PROBATION
5/1/2018 2200 ATKINS, MONICA MARCELLE B F 44 18.2-96|[M] PETIT LARCENY 2018002325
5/1/2018 2205 WILLIAMS, RONNIE NATHANIEL B M 46 16.1-278.16 FAIL TO COMPLY WITH SUPPORT OBLIGATIONS
5/1/2018 2206 CANNADY, JAQUAYLAH JASMINE B F 20 18.2-57.2|[M] ASSAULT & BATTERY - FAMILY MEMBER 2018005042
5/1/2018 2222 SPELLER, ALEXIUS B F 20 18.2-415 DISORDERLY CONDUCT 2018005042
5/1/2018 2228 MITCHELL, KATRINA SUE B F 38 18.2-415 DISORDERLY CONDUCT 2018005042
5/1/2018 2319 BIRDEN, SHAWN EUGENE B M 38 18.2-456 CONTEMPT OF COURT
5/1/2018 2319 BIRDEN, SHAWN EUGENE B M 38 18.2-57|[M] ASSAULT & BATTERY
5/1/2018 2319 BIRDEN, SHAWN EUGENE B M 38 18.2-460[M] OBSTRUCT/RESIST 2017013227
5/1/2018 2319 BIRDEN, SHAWN EUGENE B M 38 46.2-301 DRIVING W/SUSPENDED OR REVOKED LICENSE 2017013227
5/1/2018 2319 BIRDEN, SHAWN EUGENE B M 38 46.2-833 FAIL TO OBEY TRAFFIC LIGHT 2017013227
5/1/2018 2323 SPELLER, ALEXIUS B F 20 18.2-95 GRAND LARCENY
5/1/2018 11:30:00 AM 1130 FREEMAN, RAEMONDA OPHELIA B F 56 18.2-456 CONTEMPT OF COURT
5/1/2018 12:38:00 PM 1238 CARVER, IRIS NICOLE B F 24 18.2-456 CONTEMPT OF COURT
5/1/2018 12:44:00 PM 1244 GLOSTER, GENA GEE B F 25 18.2-456 CONTEMPT OF COURT
5/2/2018 1200 FLYTE, KRISTA MARIE W F 36 19.2-306|[F] REVOCATION OF SUSPENDED SENTENCE AND PROBATION
5/2/2018 1205 NORVELL, VERNON ANDREW B M 21 18.2-456 CONTEMPT OF COURT
5/2/2018 1208 DAVIS, CYNTHIA YVETTE B F 57 18.2-51 FELONIOUS ASSAULT
5/2/2018 1232 NEWBY, KENNETH AMTREY B M 58 18.2-456 CONTEMPT OF COURT
5/2/2018 1232 FERGUSON, AZALEA ANN B F 53 18.2-456 CONTEMPT OF COURT
5/2/2018 1300 POLLARD, TRACEY ANN B F 51 18.2-456 CONTEMPT OF COURT
5/2/2018 1323 SWINNEY, AYONA SHAE B F 20 46.2-835 RIGHT TURN ON STEADY RED
5/2/2018 1554 BROWN, AYODELE BOBBY B M 34 18.2-57|[F] ASSAULT & BATTERY 2018005073
5/2/2018 1554 BROWN, AYODELE BOBBY B M 34 18.2-460[M] OBSTRUCT/RESIST 2018005073
5/2/2018 1812 REID, DAIIRUS LORENZO B M 20 19.2-306|[F] REVOCATION OF SUSPENDED SENTENCE AND PROBATION
5/2/2018 1812 REID, DAIIRUS LORENZO B M 20 19.2-306|[M] REVOCATION OF SUSPENDED SENTENCE AND PROBATION
5/2/2018 1812 REID, DAIIRUS LORENZO B M 20 18.2-456 CONTEMPT OF COURT
5/2/2018 2032 DIXON, CALVIN OMAR B M 47 18.2-456 CONTEMPT OF COURT
5/2/2018 2032 DIXON, CALVIN OMAR B M 47 18.2-250|[F] POSSESSION OF CONTROLLED SUBSTANCES
5/2/2018 2100 HOWARD, DONAVEN LEE W M 36 18.2-371 CONTRIBUTING TO THE DELINQUENCY OF A MINOR 2018005091
5/2/2018 2200 PARKER, DERRICK DESHAWN B M 23 18.2-192 CREDIT CARD THEFT
5/2/2018 2200 PARKER, DERRICK DESHAWN B M 23 18.2-152.3 COMPUTER FRAUD
5/2/2018 2200 PARKER, DERRICK DESHAWN B M 23 18.2-195|[M] CREDIT CARD FRAUD <$200
5/2/2018 2200 PARKER, DERRICK DESHAWN B M 23 18.2-186.3 IDENTITY THEFT: USE TO AVOID ARREST
5/2/2018 2200 PARKER, DERRICK DESHAWN B M 23 18.2-108|[M] RECEIVING STOLEN GOODS
5/2/2018 11:00:00 AM 1100 STRICKER, DONALD WILLIAM III W M 36 16.1-253.2[M] PROTECTIVE ORDER: VIOLATION
5/2/2018 12:03:00 PM 1203 KINGSBUR, JAEQUAN ANTONIO B M 19 18.2-456 CONTEMPT OF COURT
5/2/2018 12:15:00 PM 1215 BLY, TERRY RAHAEEM B M 28 18.2-57|[M] ASSAULT & BATTERY 2018005027
5/2/2018 2:00:00 PM 1814 JOHNSON, MARQUISE MARCELUS B M 23 18.2-111.1|[F] UNLAWFUL CONVERSION OF MILITARY PROPERTY >=$200 2017016390
5/2/2018 2:06:00 PM 1406 HATFIELD, JACK DANIEL W M 39 16.1-253.2[M] PROTECTIVE ORDER: VIOLATION
5/2/2018 4:35:00 PM 1635 CROSBY, DELVIN ANTONIO B M 28 18.2-456 CONTEMPT OF COURT
5/3/2018 0011 FRANCIS, ANDREW CHRISTOPHER B M 53 18.2-272 DRIVING AFTER FORFEITURE OF LICENSE FELONY
5/3/2018 0023 DARDEN, WALTER B M 57 18.2-57.2|[M] ASSAULT & BATTERY - FAMILY MEMBER
5/3/2018 0222 VINSON, SHAQUASIA ZSAMIA EVONE B F 19 18.2-415 DISORDERLY CONDUCT
5/3/2018 0222 VINSON, SHAQUASIA ZSAMIA EVONE B F 19 18.2-460[M] OBSTRUCT/RESIST
5/3/2018 0300 BRIDDICK, CHRISTINA MAY W F 44 18.2-111|[F] EMBEZZLEMENT >=$200
5/3/2018 0300 BRIDDICK, CHRISTINA MAY W F 44 18.2-111|[M] EMBEZZLEMENT <$200
5/3/2018 1200 WADDLER, MILTON DTEOPHOLUS B M 48 19.2-306|[F] REVOCATION OF SUSPENDED SENTENCE AND PROBATION 9999250560
5/3/2018 1420 PARKER, DERRICK DESHAWN B M 23 18.2-108.01 STOLEN PROPERTY: W/ INTENT TO SELL, LARC 2018005050
5/3/2018 1420 PARKER, DERRICK DESHAWN B M 23 18.2-108|[F] RECEIVING STOLEN GOODS 2018005050
5/3/2018 1420 PARKER, DERRICK DESHAWN B M 23 18.2-95 GRAND LARCENY 2018005050
5/3/2018 1420 PARKER, DERRICK DESHAWN B M 23 18.2-147 ENTERING OR SETTING IN MOTION A VEHICLE 2018005050
5/3/2018 1528 PALMER, RACHELETTE QUINTINA PALMER B F 45 PB-15 PAROLE BOARD WARRANT - PB15
5/3/2018 1600 WALKER, ROBERT LEE B M 66 18.2-250|[F] POSSESSION OF CONTROLLED SUBSTANCES 2018005140
5/3/2018 1758 CRAVEN, SCOTT CHRISTOHER JR W M 31 19.2-306|[F] REVOCATION OF SUSPENDED SENTENCE AND PROBATION 9999250563
5/3/2018 1930 ESQUILIN, KATHERINE LOUISE W F 32 18.2-250|[F] POSSESSION OF CONTROLLED SUBSTANCES
5/3/2018 1930 ESQUILIN, KATHERINE LOUISE W F 32 18.2-186.3 IDENTITY THEFT: USE TO AVOID ARREST
5/3/2018 1930 ESQUILIN, KATHERINE LOUISE W F 32 18.2-168 FORGING PUBLIC RECORDS
5/3/2018 1930 ESQUILIN, KATHERINE LOUISE W F 32 19.2-128|[F] FAIL TO APPEAR ON FELONY CHARGE
5/3/2018 1930 ESQUILIN, KATHERINE LOUISE W F 32 19.2-82.1 FALSE IDENTIFY SELF TO LAW ENFORCEMENT
5/3/2018 1930 ESQUILIN, KATHERINE LOUISE W F 32 46.2-301 DRIVING W/SUSPENDED OR REVOKED LICENSE
5/3/2018 1930 ESQUILIN, KATHERINE LOUISE W F 32 46.2-863 RECKLESS DRIVING - FAIL TO STOP AND YIELD BEFORE ENTERING RO
5/3/2018 2136 DREW, LAQUISHA YVONNA B F 27 18.2-47 ABDUCTION & KIDNAPPING
5/3/2018 2316 NIXON, RADRIQUZE DEONTA B M 25 18.2-119 TRESPASSING
5/3/2018 2316 NIXON, RADRIQUZE DEONTA B M 25 19.2-306|[F] REVOCATION OF SUSPENDED SENTENCE AND PROBATION
5/3/2018 7:13:00 AM 0713 MIFFLETON, CAMERON LAYNE W M 35 18.2-102|[F] UNAUTHORIZED USE OF VEHICLE, BOAT OR ANIMAL 2018005060
5/3/2018 10:52:00 AM 1052 NELSON, CLAY EDWARD W M 51 18.2-57.2|[M] ASSAULT & BATTERY - FAMILY MEMBER
5/3/2018 12:58:00 PM 1258 WILLIAMS, CHARMANE MERCEDES B F 27 18.2-456 CONTEMPT OF COURT
5/3/2018 2:30:00 PM 1430 GILBERT, RICHARD WAYNE JR W M 36 18.2-456 CONTEMPT OF COURT
5/3/2018 2:30:00 PM 1430 GILBERT, RICHARD WAYNE JR W M 36 18.2-57|[M] ASSAULT & BATTERY
5/4/2018 0529 LEVITSKY, TESSA, BROOKE W F 22 18.2-266 DRIVING UNDER THE INFLUENCE OF ALCOHOL
5/4/2018 0646 SCOTT, QUANESHA SHATORIA B F 32 18.2-250|[F] POSSESSION OF CONTROLLED SUBSTANCES 2018005161
5/4/2018 0900 CARTER, ALISIA THOMASINE B F 30 16.1-292 VIOLATION OF COURT ORDER
5/4/2018 0900 CARTER, ALISIA THOMASINE B F 30 19.2-306|[F] REVOCATION OF SUSPENDED SENTENCE AND PROBATION
5/4/2018 0900 CARTER, ALISIA THOMASINE B F 30 18.2-456 CONTEMPT OF COURT
5/4/2018 0900 CARTER, ALISIA THOMASINE B F 30 19.2-128|[M] FAIL TO APPEAR ON MISDEMEANOR CHARGE
5/4/2018 0934 ATKINS, MONICA MARCELLE B F 44 18.2-57.2|[M] ASSAULT & BATTERY - FAMILY MEMBER 2018002325
5/4/2018 0936 HARPER, TAQUAN DEONTRAE RONTRE B M 23 18.2-308.2 POSSESS, TRANSPORT FIREARMS BY CONVICTED
5/4/2018 0938 WEINSCHEL, ZEBULON GEORGE W M 36 18.2-32|[F] MURDER
5/4/2018 0938 WEINSCHEL, ZEBULON GEORGE W M 36 18.2-53.1 USE OR DISPLAY FIREARM IN COMMISSION OF FELONY
5/4/2018 0938 WEINSCHEL, ZEBULON GEORGE W M 36 18.2-308.2 POSSESS, TRANSPORT FIREARMS BY CONVICTED FELONS
5/4/2018 0940 DREW, KESEY DEE B F 40 18.2-456 CONTEMPT OF COURT
5/4/2018 1325 GENEREUX, ROLAND FRANK W M 29 18.2-57|[M] ASSAULT & BATTERY
5/4/2018 1329 BOND, CURTIS LIONEL JR B M 49 19.2-306|[F] REVOCATION OF SUSPENDED SENTENCE AND PROBATION
5/4/2018 1414 CHALAIRE, JUSTO ANTONIO W M 24 18.2-250|[F] POSSESSION OF CONTROLLED SUBSTANCES 9999250593
5/4/2018 1500 MATTOCKS, RICHIE VALENTINO B M 57 22-18 DISTRIBUTION SOLICITATION SALES ON HIGHWAYS ROADWAYS 2018005198
5/4/2018 1500 MATTOCKS, RICHIE VALENTINO B M 57 24-258 PUBLIC DRUNKENNESS 2018005198
5/4/2018 1830 LEE, SAMUEL EUGENE B M 67 4.1-305 UNLAWFUL PURCHASE OR POSSESS ALCOHOLIC BEVERAGE 2018005211
5/4/2018 1856 LEE, SAMUEL EUGENE B M 67 18.2-456 CONTEMPT OF COURT
5/4/2018 1919 HUNTER, ALONZO LAMONT B M 41 19.2-306|[F] REVOCATION OF SUSPENDED SENTENCE AND PROBATION
5/4/2018 2105 POWELL, JASMIN CHANEL B F 26 18.2-456 CONTEMPT OF COURT
5/4/2018 2142 NORMAN, KEANDRA LAKEYTA B F 20 19.2-128|[M] FAIL TO APPEAR ON MISDEMEANOR CHARGE
5/4/2018 12:20:00 AM 0020 MCDOUGLE, DERRICK TREMEL B M 48 18.2-119 TRESPASSING
5/4/2018 8:39:00 AM 0839 WALKER, MICHAEL SHAQUILLE B M 23 18.2-58 ROBBERY
5/4/2018 8:39:00 AM 0839 WALKER, MICHAEL SHAQUILLE B M 23 18.2-53.1 USE OR DISPLAY FIREARM IN COMMISSION OF FELONY
5/4/2018 8:39:00 AM 0839 WALKER, MICHAEL SHAQUILLE B M 23 18.2-280|[F] DISCHARGE FIREARM -BODILY HARM OR ON SCHOOL PROP
5/4/2018 8:39:00 AM 0839 WALKER, MICHAEL SHAQUILLE B M 23 18.2-308.2 POSSESS, TRANSPORT FIREARMS BY CONVICTED FELONS
5/4/2018 9:50:00 AM 0950 PERSON, ALEXUS BIANCA B F 19 18.2-57|[M] ASSAULT & BATTERY
5/4/2018 2:18:00 PM 1418 CHERRY, BRIAN MAURICE B M 47 18.2-250|[F] POSSESSION OF CONTROLLED SUBSTANCES 2018005177
5/4/2018 9:42:00 PM 2142 NORMAN, KEANDRA LAKEYTA B F 20 19.2-128|[M] FAIL TO APPEAR ON MISDEMEANOR CHARGE
5/5/2018 0046 TAYLOR, JOHN W M 55 18.2-266 DRIVING UNDER THE INFLUENCE OF ALCOHOL
5/5/2018 0046 TAYLOR, JOHN W M 55 46.2-328 OPERATOR`S LICENSE - CLASS REQUIRED TO OPERATE A SPECIFIC TY
5/5/2018 0255 SMITH, TAQUAN MARTAI B M 25 18.2-250|[F] POSSESSION OF CONTROLLED SUBSTANCES 2018005225
5/5/2018 0255 SMITH, TAQUAN MARTAI B M 25 18.2-266|[M] DRIVING UNDER THE INFLUENCE OF ALCOHOL 2018005225
5/5/2018 0255 SMITH, TAQUAN MARTAI B M 25 18.2-268.3 REFUSE BLOOD/BREATH TEST 2018005225
5/5/2018 0255 SMITH, TAQUAN MARTAI B M 25 18.2-137|[M] DESTRUCTION OF PROPERTY, GENERAL 2018005225
5/5/2018 0255 SMITH, TAQUAN MARTAI B M 25 46.2-301 DRIVING W/SUSPENDED OR REVOKED LICENSE 2018005225
5/5/2018 0402 LOVELL, MUMINA JAMILYA B F 35 19.2-306|[F] REVOCATION OF SUSPENDED SENTENCE AND PROBATION
5/5/2018 0409 GEE, MARTARIO DONTA B M 35 18.2-308.2 POSSESS, TRANSPORT FIREARMS BY CONVICTED FELONS 2018005231
5/5/2018 0409 GEE, MARTARIO DONTA B M 35 18.2-280|[M] DISCHARGE FIREARM IN PUBLIC PLACE 2018005231
5/5/2018 0409 GEE, MARTARIO DONTA B M 35 18.2-460[M] OBSTRUCT/RESIST 2018005231
5/5/2018 0409 GEE, MARTARIO DONTA B M 35 18.2-56.1 RECKLESS HANDLING OF FIREARM 2018005231
5/5/2018 0409 GEE, MARTARIO DONTA B M 35 18.2-137|[M] DESTRUCTION OF PROPERTY, GENERAL 2018005231
5/5/2018 0509 BOKER, SHAUN MICHAEL W M 32 24-258 PUBLIC DRUNKENNESS
5/5/2018 0830 COULTER, CHARLES JEFFREY W M 22 18.2-57.2|[F] ASSAULT & BATTERY - FAMILY MEMBER (3RD OFFENSE) 2018005233
5/5/2018 0830 COULTER, CHARLES JEFFREY W M 22 18.2-137|[M] DESTRUCTION OF PROPERTY, GENERAL 2018005233
5/5/2018 0905 SIMMONS, THOMAS KEITH B M 56 18.2-456 CONTEMPT OF COURT
5/5/2018 0905 MATTOCKS, RICHIE VALENTINO B M 57 18.2-456 CONTEMPT OF COURT
5/5/2018 1147 FURR, TIMOTHY WAYNE W M 52 18.2-96|[M] PETIT LARCENY
5/5/2018 1634 BLOUNT, ANTONIO LAMONT B M 34 18.2-456 CONTEMPT OF COURT
5/5/2018 1634 BLOUNT, ANTONIO LAMONT B M 34 18.2-119 TRESPASSING 2018004667
5/5/2018 1634 BLOUNT, ANTONIO LAMONT B M 34 18.2-137|[M] DESTRUCTION OF PROPERTY, GENERAL 2018004667
5/5/2018 1634 BLOUNT, ANTONIO LAMONT B M 34 18.2-57|[M] ASSAULT & BATTERY 2018004667
5/5/2018 1940 WINDLEY, MARK ANTHONY B M 55 18.2-456 CONTEMPT OF COURT
5/5/2018 1940 WINDLEY, MARK ANTHONY B M 55 19.2-306|[F] REVOCATION OF SUSPENDED SENTENCE AND PROBATION
5/5/2018 2059 WILLIAMS, SHAPEDA SHONTE B F 25 19.2-306|[F] REVOCATION OF SUSPENDED SENTENCE AND PROBATION
5/5/2018 2202 WILLIAMS, NICOLE RENEE B F 32 18.2-57.2|[M] ASSAULT & BATTERY - FAMILY MEMBER 2018005261
5/5/2018 2345 GARDNER, TRACY ALLEN B M 50 18.2-119 TRESPASSING 2018005262
5/5/2018 2345 GARDNER, TRACY ALLEN B M 50 18.2-57|[F] ASSAULT & BATTERY 2018005262
5/6/2018 0045 WILLIAMS, JAI DEROSS B M 39 18.2-57.2|[F] ASSAULT & BATTERY - FAMILY MEMBER (3RD OFFENSE) 2018005261
5/6/2018 0251 TATE, KEVIN BERNARD II B M 25 18.2-308.2 POSSESS, TRANSPORT FIREARMS BY CONVICTED FELONS 2018005264
5/6/2018 0251 TATE, KEVIN BERNARD II B M 25 18.2-56.1 RECKLESS HANDLING OF FIREARM 2018005264
5/6/2018 0251 TATE, KEVIN BERNARD II B M 25 18.2-280|[M] DISCHARGE FIREARM IN PUBLIC PLACE 2018005264
5/6/2018 1011 BLOUNT, AVERY EMANUEL B M 32 19.2-128|[M] FAIL TO APPEAR ON MISDEMEANOR CHARGE
5/6/2018 1513 RODGERS, MELVIN EUGENE B M 36 18.2-57.2|[M] ASSAULT & BATTERY - FAMILY MEMBER
5/6/2018 1513 RODGERS, MELVIN EUGENE B M 36 18.2-57|[M] ASSAULT & BATTERY
5/6/2018 1805 JOHNSON, DESMOND DEMON B M 29 19.2-306|[M] REVOCATION OF SUSPENDED SENTENCE AND PROBATION
5/6/2018 1805 JOHNSON, DESMOND DEMON B M 29 18.2-271.1 PROBATION, EDUCATION AND REHABILITATION
5/6/2018 1839 AUSTIN, DEMEKO JAVON B M 23 18.2-57.2|[M] ASSAULT & BATTERY - FAMILY MEMBER
5/6/2018 2235 ARMSTRONG, ROOSEVELT AUGUSTUS JR B M 64 18.2-456 CONTEMPT OF COURT
5/6/2018 9:05:00 PM 2105 HARRIS, BRITTNAY ALICE B F 23 18.2-57|[M] ASSAULT & BATTERY 2018004213
5/6/2018 9:05:00 PM 2105 HARRIS, BRITTNAY ALICE B F 23 18.2-137|[M] DESTRUCTION OF PROPERTY, GENERAL 2018004213
5/7/2018 0131 COLTRANE, D`ANDRAE DAQUAN B M 20 18.2-57.2|[M] ASSAULT & BATTERY - FAMILY MEMBER 2018005224
5/7/2018 0321 WHISPELL, HEATH OWEN W M 33 54.1-3466 POSSESS, DISTRIBUTE CONTROLLED PARAPHERNALIA 2018005297
5/7/2018 0321 WHISPELL, HEATH OWEN W M 33 18.2-250.1 POSSESSION OF MARIJUANA 2018005297
5/7/2018 0321 WHISPELL, HEATH OWEN W M 33 18.2-250|[F] POSSESSION OF CONTROLLED SUBSTANCES 2018005297
5/7/2018 0321 WHISPELL, HEATH OWEN W M 33 18.2-308|[M] CARRYING CONCEALED WEAPON -1ST OFFENSE 2018005297
5/7/2018 0352 RYDER, MATTHEW CAIN W M 30 18.2-308|[M] CARRYING CONCEALED WEAPON -1ST OFFENSE
5/7/2018 0352 RYDER, MATTHEW CAIN W M 30 54.1-3466 POSSESS, DISTRIBUTE CONTROLLED PARAPHERNALIA
5/7/2018 0352 RYDER, MATTHEW CAIN W M 30 18.2-250|[F] POSSESSION OF CONTROLLED SUBSTANCES
5/7/2018 0352 RYDER, MATTHEW CAIN W M 30 18.2-250.1 POSSESSION OF MARIJUANA
5/7/2018 0419 EDWARDS, TAYQUON ROBERT B M 25 18.2-95 GRAND LARCENY 2018005296
5/7/2018 0913 GRAHAM, MALIK DORELL B M 21 18.2-57.2|[M] ASSAULT & BATTERY - FAMILY MEMBER 2018005302
5/7/2018 1145 BRANCH, DEMETRIUS DANTE B M 35 18.2-248.1|[M] SALE, DISTRIBUTE MARIJUANA
5/7/2018 1150 LAYNE, FRANKLIN WINGFIELD III W M 59 18.2-308.2 POSSESS, TRANSPORT FIREARMS BY CONVICTED FELONS
5/7/2018 1348 MCDOUGLE, DERRICK TREMEL B M 48 18.2-250|[F] POSSESSION OF CONTROLLED SUBSTANCES
5/7/2018 1445 EPPS, GREGORY FITZGERALD B M 53 16.1-278.16 FAIL TO COMPLY WITH SUPPORT OBLIGATIONS
5/7/2018 2000 JACKSON, NATALIE KAY W F 21 18.2-51 FELONIOUS ASSAULT 2018004181
5/7/2018 2135 LAND, JOHNATHAN EDWARD B M 29 18.2-57.2|[M] ASSAULT & BATTERY - FAMILY MEMBER
5/7/2018 2219 POWELL, LORENZO BARTHOLOMEW B M 44 18.2-456 CONTEMPT OF COURT
5/7/2018 2350 WASHINGTON, KYREE MALIK B M 18 18.2-371 CONTRIBUTING TO THE DELINQUENCY OF A MINOR 2018005351
5/7/2018 2350 WASHINGTON, KYREE MALIK B M 18 18.2-250.1 POSSESSION OF MARIJUANA 2018005351
5/7/2018 11:51:00 AM 1151 WILKINS, LATOYA B F 31 18.2-51.2 AGGRAVATED MALICIOUS WOUNDING
5/8/2018 0001 BRADSHAW, JOSHUA SHEA W M 27 18.2-250.1 POSSESSION OF MARIJUANA 2018005347
5/8/2018 0100 BLALOCK, GAGE RUSSELL ALLEN W M 18 18.2-308.4 POSSESS FIREARM WHILE IN POSSESSION OF DRUGS 2018005345
5/8/2018 0100 BLALOCK, GAGE RUSSELL ALLEN W M 18 18.2-248.1|[F] SALE, DISTRIBUTE MARIJUANA 2018005345
5/8/2018 0100 BLALOCK, GAGE RUSSELL ALLEN W M 18 18.2-250|[F] POSSESSION OF CONTROLLED SUBSTANCES 2018005345
5/8/2018 0226 RICHARDSON, WILLIAM JULIUS JR B M 54 18.2-456 CONTEMPT OF COURT
5/8/2018 0226 RICHARDSON, WILLIAM JULIUS JR B M 54 19.2-128|[F] FAIL TO APPEAR ON FELONY CHARGE
5/8/2018 0240 SEALS, SHALOM B M 18 16.1-292 VIOLATION OF COURT ORDER
5/8/2018 0932 LANIER, BRITTANY JHANAY B F 29 18.2-51.2 AGGRAVATED MALICIOUS WOUNDING
5/8/2018 1010 PARKER, IDELLA B F 56 18.2-57.2|[M] ASSAULT & BATTERY - FAMILY MEMBER
5/8/2018 1114 JOHNSON, BRANDON RICHTOM B M 23 18.2-308|[M] CARRYING CONCEALED WEAPON -1ST OFFENSE 2018000069
5/8/2018 1257 CHINN, WESLEY CHARLES B M 46 18.2-57|[M] ASSAULT & BATTERY 2018005352
5/8/2018 1335 JOHNSON, DEVIN CHERANEZ B M 40 19.2-128|[M] FAIL TO APPEAR ON MISDEMEANOR CHARGE
5/8/2018 1410 HARRIS, DEQUINTE QUADIR B M 22 18.2-95 GRAND LARCENY
5/8/2018 1450 WILLIAMS, ANTOAN EMILIO B M 41 18.2-456 CONTEMPT OF COURT
5/8/2018 1548 JAMES, BRANDON ALLEN B M 24 46.2-301 DRIVING W/SUSPENDED OR REVOKED LICENSE
5/8/2018 1550 WHITE, SARAH MICHELLE W F 32 18.2-119 TRESPASSING
5/8/2018 1550 WHITE, SARAH MICHELLE W F 32 18.2-456 CONTEMPT OF COURT
5/8/2018 1610 NELSON, CLAY EDWARD W M 51 18.2-91|[F] BREAKING & ENTER W/INT TO COMMIT FELONY
5/8/2018 1610 NELSON, CLAY EDWARD W M 51 18.2-137|[M] DESTRUCTION OF PROPERTY, GENERAL
5/8/2018 1817 SCOTT, AMOS JR B M 29 18.2-57|[M] ASSAULT & BATTERY 2018005243
5/8/2018 1817 SCOTT, AMOS JR B M 29 18.2-456 CONTEMPT OF COURT
5/8/2018 1817 SCOTT, AMOS JR B M 29 19.2-152.10 PROTECTIVE ORDER
5/8/2018 2106 ASBURY, TYRONE ANTHONY B M 37 18.2-456 CONTEMPT OF COURT
5/8/2018 2145 RICHARDSON-WEATHERS, CHARDAISHA B F 19 18.2-460[M] OBSTRUCT/RESIST 2018005385
5/8/2018 2145 RICHARDSON-WEATHERS, CHARDAISHA B F 19 18.2-415 DISORDERLY CONDUCT 2018005385
5/8/2018 2150 WEATHERS, ROYCHELLE T B F 36 18.2-415 DISORDERLY CONDUCT 2018005385
5/8/2018 2357 BARROW, ANDRA DEANGELO B M 27 18.2-460[M] OBSTRUCT/RESIST 2018005393
5/8/2018 2357 BARROW, ANDRA DEANGELO B M 27 18.2-119 TRESPASSING 2018005393
5/8/2018 2357 BARROW, ANDRA DEANGELO B M 27 18.2-250.1 POSSESSION OF MARIJUANA 2018005393
5/8/2018 4:00:00 AM 0400 KEY, TAESHAWN JERMAINE B M 19 18.2-456 CONTEMPT OF COURT
5/8/2018 11:21:00 AM 1121 BOLDIN, SHELVONDRA B F 37 18.2-137|[M] DESTRUCTION OF PROPERTY, GENERAL 2018004737
5/8/2018 12:06:00 PM 1206 RODGERS, JUNIOUS DEMETRIUS III B M 51 18.2-456 CONTEMPT OF COURT
5/8/2018 8:02:00 PM 2002 ROBEY, JAMES RONALD JR W M 51 18.2-102|[F] UNAUTHORIZED USE OF VEHICLE, BOAT OR ANIMAL 2018001307
5/9/2018 0040 EDGERTON, ANTOINE DEVON B M 27 18.2-57.2|[M] ASSAULT & BATTERY - FAMILY MEMBER 2018005387
5/9/2018 0040 EDGERTON, ANTOINE DEVON B M 27 18.2-308|[M] CARRYING CONCEALED WEAPON -1ST OFFENSE 2018005387
5/9/2018 0046 ELLIOTT, DANEESHA DIANA B F 36 18.2-266.1 DRIVING AFTER ILLEGALLY CONSUMING ALCOHOL
5/9/2018 0145 PLUMMER, JAMONTE DOMINIC JR B M 26 18.2-119 TRESPASSING 2018005397
5/9/2018 0320 JACKSON, CHAY CHANTEL B F 34 18.2-456 CONTEMPT OF COURT
5/9/2018 0425 GRANT, SHANTE B M 33 18.2-456 CONTEMPT OF COURT 9999250630
5/9/2018 0920 BROWN, LISA B F 50 18.2-308.2:2|[F] FIREARM PURCHASE OR DEALER VIOLATION
5/9/2018 1103 STITT, CHRISTIAN JAYANETTI B M 26 19.2-306|[F] REVOCATION OF SUSPENDED SENTENCE AND PROBATION
5/9/2018 1140 KEE, CAL BERNARD JR B M 39 19.2-306|[F] REVOCATION OF SUSPENDED SENTENCE AND PROBATION
5/9/2018 1145 HALL, CARLTON B M 52 18.2-456 CONTEMPT OF COURT
5/9/2018 1200 YOUNG, ANGELA LAVERNE B F 43 18.2-456 CONTEMPT OF COURT
5/9/2018 1210 BOONE, BOBBY LEON JR B M 48 18.2-456 CONTEMPT OF COURT
5/9/2018 1931 MYRICK, CORNELIA B F 19 18.2-57|[M] ASSAULT & BATTERY
5/9/2018 2000 STATON, SHAYDAE DAQUISHA B F 25 18.2-195|[F] CREDIT CARD FRAUD
5/9/2018 2209 HUTSON, LUCILLE W F 33 18.2-96|[M] PETIT LARCENY
5/9/2018 2209 HUTSON, LUCILLE W F 33 18.2-51 FELONIOUS ASSAULT
5/9/2018 12:17:00 AM 0017 HEART, GARFIELD B M 53 24-253 ALCOHOL - OPEN CONTAINER OF AN ALCOHOLIC BEVERAGE IN ANY PUB 2018005443
5/9/2018 9:30:00 AM 0930 HARRIS, SINCERE LEE B M 18 18.2-415 DISORDERLY CONDUCT
5/9/2018 12:13:00 PM 1213 BASNIGHT, WHITNEY SHENA B F 31 18.2-57|[M] ASSAULT & BATTERY 2018004795
5/10/2018 0024 TROTTER, JAVON TYRONE B M 19 18.2-250.1 POSSESSION OF MARIJUANA 2018005448
5/10/2018 0212 STRICKLAND, DOMINIQUE VONZELL B M 37 18.2-456 CONTEMPT OF COURT
5/10/2018 0801 DAVIS, KIMARA KENNETH II B M 26 18.2-456 CONTEMPT OF COURT
5/10/2018 0801 DAVIS, KIMARA KENNETH II B M 26 18.2-250|[F] POSSESSION OF CONTROLLED SUBSTANCES
5/10/2018 1005 LUGO, JUAN DANIEL W M 38 18.2-456 CONTEMPT OF COURT
5/10/2018 1446 WHITEHEAD, FRANKIE DIRNEL JR B M 27 19.2-306|[F] REVOCATION OF SUSPENDED SENTENCE AND PROBATION
5/10/2018 1532 LITTLE, THOMAS LEE B M 27 18.2-248|[F] MANUF, SALE, POSSESSION CONTROLLED SUBSTANCE 2018001160
5/10/2018 1558 RICKS, ANTOINE DUPREE B M 30 19.2-306|[F] REVOCATION OF SUSPENDED SENTENCE AND PROBATION
5/10/2018 1630 STONE, BILLY LEE W M 41 18.2-57.2|[M] ASSAULT & BATTERY - FAMILY MEMBER
5/10/2018 1816 JACKSON, KAHLIA WILLIAMS B M 22 18.2-57.2|[M] ASSAULT & BATTERY - FAMILY MEMBER 9999250666
5/10/2018 2127 WELDON, TYQUN SHAMAR B M 19 18.2-22 CONSPIRACY TO COMMIT FELONY 2018004287
5/10/2018 2127 WELDON, TYQUN SHAMAR B M 19 18.2-91|[F][B] BREAKING & ENTER W/INT TO COMMIT FELONY -ARMED 2018004287
5/10/2018 2127 WELDON, TYQUN SHAMAR B M 19 18.2-51 FELONIOUS ASSAULT 2018004287
5/10/2018 2127 WELDON, TYQUN SHAMAR B M 19 18.2-47 ABDUCTION & KIDNAPPING 2018004287
5/10/2018 2127 WELDON, TYQUN SHAMAR B M 19 18.2-53.1 USE OR DISPLAY FIREARM IN COMMISSION OF 2018004287
5/10/2018 2211 HARRIS, JONICIA LEESHAY B F 18 18.2-460|[F] OBSTRUCTING JUSTICE
5/10/2018 2215 CROSS, DARREN CLINTON B M 39 18.2-427 PROFANE, THREATENING LANGUAGE OVER PUBLIC AIRWAY
5/10/2018 2215 CROSS, DARREN CLINTON B M 39 18.2-60.3|[M] STALKING
5/10/2018 2215 CROSS, DARREN CLINTON B M 39 18.2-386.2 UNLAWFUL DISSEMINATION OF IMAGE
5/10/2018 2227 SULLIVAN, STEFANIE LOUISE W F 32 18.2-456 CONTEMPT OF COURT
5/10/2018 12:01:00 PM 1201 BERGERON, KIMBERLY JOAN W F 56 24-253 ALCOHOL - OPEN CONTAINER OF AN ALCOHOLIC BEVERAGE IN ANY PUB 2018005461
5/11/2018 0026 GIBBS, KENDALL DOUGLAS W M 19 4.1-305 UNLAWFUL PURCHASE OR POSSESS ALCOHOLIC BEVERAGE
5/11/2018 0026 GIBBS, KENDALL DOUGLAS W M 19 18.2-266.1 DRIVING AFTER ILLEGALLY CONSUMING ALCOHOL
5/11/2018 0026 GIBBS, KENDALL DOUGLAS W M 19 18.2-266 DRIVING UNDER THE INFLUENCE OF ALCOHOL
5/11/2018 0410 HAULMAN, RICHARD SCOTT W M 47 18.2-60.4 [M] VIOLATION OF STALKING PROTECTIVE ORDER
5/11/2018 0410 HAULMAN, RICHARD SCOTT W M 47 18.2-456 CONTEMPT OF COURT
5/11/2018 0438 THOMAS, DEMETRICE MARKIQUE B M 34 19.2-306|[F] REVOCATION OF SUSPENDED SENTENCE AND PROBATION
5/11/2018 0839 FOX, KELVIN LORENZO B M 50 18.2-456 CONTEMPT OF COURT
5/11/2018 1015 PERKINS, JOSHUA LUCAS W M 37 19.2-306|[F] REVOCATION OF SUSPENDED SENTENCE AND PROBATION 9999250738
5/11/2018 1020 CARTER, TOMMEL DEMONTE B M 28 18.2-250|[F] POSSESSION OF CONTROLLED SUBSTANCES 2017011923
5/11/2018 1122 WILLIAMS, BRUCE LEE EDWARD JR B M 18 18.2-460|[F] OBSTRUCTING JUSTICE 2018005484
5/11/2018 1534 WATKINS, PAUL DWAYNE III B M 33 18.2-456 CONTEMPT OF COURT 9999250737
5/11/2018 1542 PALMER, KIARA DENISE B F 20 18.2-119 TRESPASSING 2018005506
5/11/2018 1542 PALMER, KIARA DENISE B F 20 18.2-415 DISORDERLY CONDUCT 2018005506
5/11/2018 1600 ROSALES, WALTER EMILIO JR B M 25 19.2-306|[F] REVOCATION OF SUSPENDED SENTENCE AND PROBATION
5/11/2018 1610 WILLIAMS, ROBERT ALVIN B M 36 19.2-99|[F] FUGITIVE FROM JUSTICE
5/11/2018 1700 HUNTER, EUGENE EMMANUEL B M 39 18.2-137|[M] DESTRUCTION OF PROPERTY, GENERAL 2018004110
5/11/2018 1700 HUNTER, EUGENE EMMANUEL B M 39 18.2-427 PROFANE, THREATENING LANGUAGE OVER PUBLIC AIRWAY 2018004110
5/11/2018 1700 HUNTER, EUGENE EMMANUEL B M 39 19.2-306|[F] REVOCATION OF SUSPENDED SENTENCE AND PROBATION
5/11/2018 2020 CARTER, TOMMEL DEMONTE B M 28 18.2-456 CONTEMPT OF COURT 9999250701
5/11/2018 2138 STEVENS, SCHAQUA LAKEITHA B F 22 24-253 ALCOHOL - OPEN CONTAINER OF AN ALCOHOLIC BEVERAGE IN ANY PUB 2018005530
5/11/2018 4:10:00 AM 0410 HAULMAN, RICHARD SCOTT W M 47 18.2-60.4 [M] VIOLATION OF STALKING PROTECTIVE ORDER
5/11/2018 4:10:00 AM 0410 HAULMAN, RICHARD SCOTT W M 47 18.2-456 CONTEMPT OF COURT
5/11/2018 1:30:00 PM 1330 RUSSELL, DAKOTA CRAIG W M 30 18.2-192 CREDIT CARD THEFT 2018000963
5/11/2018 1:30:00 PM 1330 RUSSELL, DAKOTA CRAIG W M 30 18.2-193 CREDIT CARD FORGERY 2018000963
5/11/2018 1:30:00 PM 1330 RUSSELL, DAKOTA CRAIG W M 30 18.2-96|[F] LARCENY OR THEFT (3RD OR SUBSQ OFFENSE) 2018000963
5/11/2018 1:30:00 PM 1330 RUSSELL, DAKOTA CRAIG W M 30 18.2-96|[M] PETIT LARCENY 2018001432
5/11/2018 1:30:00 PM 1330 RUSSELL, DAKOTA CRAIG W M 30 18.2-95 GRAND LARCENY 2018003834
5/11/2018 2:53:00 PM 1453 ELLIS, BRANDON GAIGE W M 24 19.2-306|[F] REVOCATION OF SUSPENDED SENTENCE AND PROBATION
5/11/2018 9:38:00 PM 2138 GRIMES, SHELBY NICOLE B F 22 24-253 ALCOHOL - OPEN CONTAINER OF AN ALCOHOLIC BEVERAGE IN ANY PUB 2018005530
5/12/2018 0037 NICHOLAS, WILLIAM ROBERT W M 31 19.2-306|[F] REVOCATION OF SUSPENDED SENTENCE AND PROBATION
5/12/2018 0110 HOLLOWAY, JEVONTE RAYMON B M 26 18.2-460[M] OBSTRUCT/RESIST 2018005534
5/12/2018 0110 HOLLOWAY, JEVONTE RAYMON B M 26 18.2-58 ROBBERY 2018005534
5/12/2018 0415 GRANT, ELM ANDRE B M 58 18.2-266 DRIVING UNDER THE INFLUENCE OF ALCOHOL 2018005542
5/12/2018 1105 HARRIS, LAKISHA B F 29 18.2-57.2|[M] ASSAULT & BATTERY - FAMILY MEMBER
5/12/2018 1106 CURLING, ANDREW EUGENE W M 26 46.2-301 DRIVING W/SUSPENDED OR REVOKED LICENSE
5/12/2018 1109 MCCOLLUM, ISAIAH JR B M 62 18.2-57.2|[M] ASSAULT & BATTERY - FAMILY MEMBER
5/12/2018 2036 EPPS, MARVIN LEE B M 51 18.2-456 CONTEMPT OF COURT
5/13/2018 0259 ROBINSON, MICHAEL THOMAS B M 39 18.2-57.2|[M] ASSAULT & BATTERY - FAMILY MEMBER 2018005590
5/13/2018 1606 NICHOLSON, PAUL MAYNARD B M 25 18.2-57.2|[M] ASSAULT & BATTERY - FAMILY MEMBER 2018005612
5/13/2018 1810 DAVIS, DARNELL THEODORE B M 34 18.2-266 DRIVING UNDER THE INFLUENCE OF ALCOHOL
5/13/2018 1957 BOWENS-BENTON, ISAIAH GERROD B M 20 46.2-301 DRIVING W/SUSPENDED OR REVOKED LICENSE
5/13/2018 9:23:00 AM 0923 COPPEDGE, ANTHONY JEROME B M 46 18.2-456 CONTEMPT OF COURT
5/13/2018 11:14:00 AM 1114 AVILA-SOSA, SAMUEL W M 27 18.2-57.2|[M] ASSAULT & BATTERY - FAMILY MEMBER 2018005598
5/13/2018 5:30:00 PM 1730 ASKEW, PATRICIA LYNN B F 48 18.2-96|[F] LARCENY OR THEFT (3RD OR SUBSQ OFFENSE) 2018005616
5/13/2018 5:30:00 PM 1730 ASKEW, PATRICIA LYNN B F 48 18.2-119 TRESPASSING 2018005616
5/14/2018 0100 BRADSHAW, WILLIAM HAROLD III W M 53 18.2-250|[F] POSSESSION OF CONTROLLED SUBSTANCES 2018005630
5/14/2018 0111 STEPHENSON, ANTONIO DESHAWN B M 20 18.2-51.2 AGGRAVATED MALICIOUS WOUNDING 2018003018
5/14/2018 0111 STEPHENSON, ANTONIO DESHAWN B M 20 18.2-371.1 ABUSE AND NEGLECT OF CHILDREN 2018003018
5/14/2018 0112 REDMAN, KEITH EARL B M 23 18.2-250.1 POSSESSION OF MARIJUANA 2018005530
5/14/2018 0112 REDMAN, KEITH EARL B M 23 18.2-248|[F] MANUF, SALE, POSSESSION CONTROLLED SUBSTANCE 2018005530
5/14/2018 0112 REDMAN, KEITH EARL B M 23 18.2-248.1|[F] SALE, DISTRIBUTE MARIJUANA 2018005530
5/14/2018 0230 WILLIAMS, ANTHONY DAWAUN B M 24 18.2-386.2 UNLAWFUL DISSEMINATION OF IMAGE
5/14/2018 0230 WILLIAMS, ANTHONY DAWAUN B M 24 18.2-57|[M] ASSAULT & BATTERY
5/14/2018 0230 WILLIAMS, ANTHONY DAWAUN B M 24 18.2-137|[M] DESTRUCTION OF PROPERTY, GENERAL
5/14/2018 0658 BROWN, ERICA JASMINE B F 32 18.2-58 ROBBERY 2018005631
5/14/2018 0658 BROWN, ERICA JASMINE B F 32 18.2-53.1 USE OR DISPLAY FIREARM IN COMMISSION OF FELONY 2018005631
5/14/2018 0658 BROWN, ERICA JASMINE B F 32 18.2-456 CONTEMPT OF COURT
5/14/2018 0742 BLOW, FERNANDO CURTEZ B M 26 18.2-51.2 AGGRAVATED MALICIOUS WOUNDING 2018005591
5/14/2018 0742 BLOW, FERNANDO CURTEZ B M 26 18.2-51.6[F] STRANGULATION OF ANOTHER 2018005591
5/14/2018 0742 BLOW, FERNANDO CURTEZ B M 26 18.2-91|[F] BREAKING & ENTER W/INT TO COMMIT FELONY 2018005591
5/14/2018 0750 PERKINS, LINDA ANN B F 25 24-258 PUBLIC DRUNKENNESS 2018005637
5/14/2018 1100 SPRUILL, CURTIS ANTONIO B M 50 24-253 ALCOHOL - OPEN CONTAINER OF AN ALCOHOLIC BEVERAGE IN ANY PUB 2018005648
5/14/2018 1116 JONES, MALCOLM DOMINIC B M 43 18.2-472.1|[F] FAIL TO REGISTER OR FALSE INFO - VIOL SEX OFFNDR
5/14/2018 1238 DAVIS, AMIR IDRIS B M 33 18.2-58 ROBBERY
5/14/2018 1238 DAVIS, AMIR IDRIS B M 33 18.2-104 LARCENY OR THEFT (3RD OR SUBSQ OFFENSE)
5/14/2018 1315 HICKS, CYNTHIA JUANITA B F 53 24-253 ALCOHOL - OPEN CONTAINER OF AN ALCOHOLIC BEVERAGE IN ANY PUB 2018005655
5/14/2018 1335 DAVIS, DOMONIC ANDRE B M 23 18.2-456 CONTEMPT OF COURT
5/14/2018 1509 ELKINS, JEFFREY MITCHELL W M 46 18.2-456 CONTEMPT OF COURT
5/14/2018 1630 SCOTT, CARNELL BRYAN B M 45 19.2-306|[F] REVOCATION OF SUSPENDED SENTENCE AND PROBATION
5/14/2018 12:58:00 AM 0001 COSTON, CALVIN TEKO B M 35 18.2-57.2|[M] ASSAULT & BATTERY - FAMILY MEMBER 2018005447
5/14/2018 11:09:00 AM 1109 SMITH, VINCENT ANTONIO SR B M 51 24-253 ALCOHOL - OPEN CONTAINER OF AN ALCOHOLIC BEVERAGE IN ANY PUB 2018005647
5/14/2018 12:24:00 PM 1224 BELL, TANGILA SADE B F 21 18.2-57|[M] ASSAULT & BATTERY
5/14/2018 1:00:00 PM 1300 LEE, DESTINY LEONICA B F 22 18.2-111|[M] EMBEZZLEMENT <$200 2017001795
5/14/2018 1:41:00 PM 1341 WOODWARD, TAMARA SHAUNTAL W F 35 18.2-57|[M] ASSAULT & BATTERY 2017014490
5/15/2018 0244 SCOTT, SHANITA LAPREE B F 33 18.2-51.2 AGGRAVATED MALICIOUS WOUNDING 2018005558
5/15/2018 1134 JACKSON, BRITTNEY EILEEN B F 21 18.2-119 TRESPASSING
5/15/2018 1134 JACKSON, BRITTNEY EILEEN B F 21 18.2-57|[M] ASSAULT & BATTERY
5/15/2018 1156 WINBOURNE, BREYON JUANANTHONY B M 23 18.2-456 CONTEMPT OF COURT
5/15/2018 1216 JONES, KE`ZAR MAURICE B M 25 18.2-282|[M] BRANDISHING FIREARM
5/15/2018 1216 JONES, KE`ZAR MAURICE B M 25 18.2-308.2 POSSESS, TRANSPORT FIREARMS BY CONVICTED FELONS
5/15/2018 1309 REID, OLIVER WINDELL JR B M 52 18.2-57.2|[M] ASSAULT & BATTERY - FAMILY MEMBER 2018004896
5/15/2018 1315 HARRISON, LATOYA LOUISE B F 38 18.2-103|[M] CONCEALMENT, PRICE ALTER MERCHANDISE <$200
5/15/2018 1531 RODRIGUEZ, DANIEL VINCENT W M 52 18.2-58 ROBBERY
5/15/2018 1531 RODRIGUEZ, DANIEL VINCENT W M 52 18.2-95 GRAND LARCENY
5/15/2018 1531 JOHNSTON, VICKIE FAYE W F 56 18.2-456 CONTEMPT OF COURT
5/15/2018 1531 JOHNSTON, VICKIE FAYE W F 56 18.2-58 ROBBERY
5/15/2018 1531 JOHNSTON, VICKIE FAYE W F 56 18.2-95 GRAND LARCENY
5/15/2018 1715 ELEY, ONYX MYESHA B F 27 18.2-456 CONTEMPT OF COURT
5/15/2018 1819 DARDEN, JAMES ARNESS B M 40 19.2-306|[F] REVOCATION OF SUSPENDED SENTENCE AND PROBATION
5/15/2018 2025 PARSONS, DONALD LEE W M 23 18.2-456 CONTEMPT OF COURT
5/15/2018 2025 PARSONS, DONALD LEE W M 23 18.2-248|[F] MANUF, SALE, POSSESSION CONTROLLED SUBSTANCE
5/15/2018 2345 COPELAND, KENNASSZAH B F 20 18.2-415 DISORDERLY CONDUCT 2018005722
5/15/2018 2:36:00 AM 0236 GOODEN, DI`KEYLA B F 19 18.2-415 DISORDERLY CONDUCT 2018005723
5/15/2018 9:05:00 AM 0905 FERGUSON, VERONICA EILEEN B F 54 24-253 ALCOHOL - OPEN CONTAINER OF AN ALCOHOLIC BEVERAGE IN ANY PUB
5/15/2018 11:27:00 AM 1127 TROTTER, CELESTINE B F 58 18.2-57|[M] ASSAULT & BATTERY
5/16/2018 0001 FARMER, MATTHEW WAYNE W M 31 19.2-306|[M] REVOCATION OF SUSPENDED SENTENCE AND PROBATION
5/16/2018 0001 FARMER, MATTHEW WAYNE W M 31 19.2-306|[F] REVOCATION OF SUSPENDED SENTENCE AND PROBATION
5/16/2018 1100 CLARK, MIRANDA RODNAE B F 18 18.2-95 GRAND LARCENY
5/16/2018 1300 ABDUL-BAQI, CHINA MONAY B F 26 18.2-57.2|[M] ASSAULT & BATTERY - FAMILY MEMBER
5/16/2018 1300 STITT, CHRISTIAN JAYANETTI B M 26 19.2-306|[F] REVOCATION OF SUSPENDED SENTENCE AND PROBATION
5/16/2018 1436 ABDUL-BAQI, NAJI-ALLAH BALEEGH B M 26 18.2-57.2|[M] ASSAULT & BATTERY - FAMILY MEMBER
5/16/2018 1827 PAXTON, ANTONIO LORENZO B M 43 18.2-248|[F] MANUF, SALE, POSSESSION CONTROLLED SUBSTANCE
5/16/2018 1915 PREAS, WALTER ARNOLD ALLEN W M 34 18.2-456 CONTEMPT OF COURT
5/16/2018 2010 FAISON, KAREN MARIE B F 38 18.2-456 CONTEMPT OF COURT
5/16/2018 9:52:00 AM 0952 PICKENS, CLINTON THOMAS B M 33 18.2-91|[F] BREAKING & ENTER W/INT TO COMMIT FELONY 2017005220
5/16/2018 9:52:00 AM 0952 PICKENS, CLINTON THOMAS B M 33 18.2-95 GRAND LARCENY 2017005220
5/16/2018 9:52:00 AM 0952 PICKENS, CLINTON THOMAS B M 33 18.2-137|[F] DESTRUCTION OF PROPERTY GENERAL -VALUE >=$1000 2017005220
5/16/2018 11:30:00 AM 1130 LYNCH, ALEXIS D B F 20 18.2-103|[M] CONCEALMENT, PRICE ALTER MERCHANDISE <$200
5/16/2018 12:20:00 PM 1220 BAKER, CATHY ROGERS W F 58 23-26 PERMIT DEBRIS ON PROPERTY
5/16/2018 4:19:00 PM 1619 MCCLELLAN, BRENDEN TYLER W M 26 19.2-306|[F] REVOCATION OF SUSPENDED SENTENCE AND PROBATION
5/16/2018 5:42:00 PM 1742 JONES, STEPHEN LAMONT B M 43 18.2-456 CONTEMPT OF COURT
5/17/2018 0340 SMITH, CORNELL ULYSSES JR B M 44 18.2-456 CONTEMPT OF COURT
5/17/2018 0340 SMITH, CORNELL ULYSSES JR B M 44 18.2-103|[M] CONCEALMENT, PRICE ALTER MERCHANDISE <$200
5/17/2018 0340 SMITH, CORNELL ULYSSES JR B M 44 46.2-301 DRIVING W/SUSPENDED OR REVOKED LICENSE
5/17/2018 0340 SMITH, CORNELL ULYSSES JR B M 44 18.2-250|[F] POSSESSION OF CONTROLLED SUBSTANCES
5/17/2018 0340 SMITH, CORNELL ULYSSES JR B M 44 18.2-472.1|[F] FAIL TO REGISTER OR FALSE INFO - VIOL SEX OFFNDR
5/17/2018 0700 JOHNSON, CALVAN CLARENCE B M 54 18.2-108|[F] RECEIVING STOLEN GOODS 2018001581
5/17/2018 1155 WEYMER, BIANCA LEE W F 24 18.2-57|[M] ASSAULT & BATTERY
5/17/2018 1155 WEYMER, BIANCA LEE W F 24 18.2-57.2|[M] ASSAULT & BATTERY - FAMILY MEMBER
5/17/2018 1350 BROWN, ASHLEY RENEE B F 32 18.2-57.2|[M] ASSAULT & BATTERY - FAMILY MEMBER
5/17/2018 1541 WINFIELD, MELVIN LEE B M 42 19.2-135 CONTEMPT - SHOW CAUSE
5/17/2018 2048 WRIGHT, CHIMYRA SHAWNTA B F 28 18.2-60.4 [M] VIOLATION OF STALKING PROTECTIVE ORDER
5/17/2018 2110 ALLEN, BOBBY LEE B M 33 18.2-456 CONTEMPT OF COURT
5/17/2018 2110 ALLEN, BOBBY LEE B M 33 19.2-306|[M] REVOCATION OF SUSPENDED SENTENCE AND PROBATION
5/17/2018 2110 ALLEN, BOBBY LEE B M 33 19.2-306|[F] REVOCATION OF SUSPENDED SENTENCE AND PROBATION
5/17/2018 2316 REYNOLDS, LANCE RYAN W M 31 18.2-51.6[F] STRANGULATION OF ANOTHER
5/17/2018 2316 REYNOLDS, LANCE RYAN W M 31 18.2-57.2|[M] ASSAULT & BATTERY - FAMILY MEMBER
5/17/2018 12:13:00 AM 0013 DANIEL, ADDISON VERN B M 43 18.2-456 CONTEMPT OF COURT
5/17/2018 11:06:00 AM 1106 LONG, JOSHUA TIMOTHY B M 32 18.2-60.4 [M] VIOLATION OF STALKING PROTECTIVE ORDER
5/17/2018 12:07:00 PM 1207 FERRETTE, JERMAINE TRAVIS B M 31 18.2-57.2|[M] ASSAULT & BATTERY - FAMILY MEMBER 2018005784
5/17/2018 12:34:00 PM 1234 ATKINS, MALIK RASHEEM B M 21 18.2-57.2|[M] ASSAULT & BATTERY - FAMILY MEMBER
5/17/2018 1:30:00 PM 1330 WINFIELD, MELVIN LEE B M 42 19.2-306|[F] REVOCATION OF SUSPENDED SENTENCE AND PROBATION
5/17/2018 3:25:00 PM 1525 JOHNSON, JAYLOND LYDELL B M 25 18.2-57.2|[M] ASSAULT & BATTERY - FAMILY MEMBER
5/18/2018 0441 COOPER, CORION CYMONE B M 33 18.2-271.1 PROBATION, EDUCATION AND REHABILITATION
5/18/2018 0441 COOPER, CORION CYMONE B M 33 19.2-306|[M] REVOCATION OF SUSPENDED SENTENCE AND PROBATION
5/18/2018 0740 DAVIS, MARC JACOB B M 33 18.2-456 CONTEMPT OF COURT
5/18/2018 0837 POLLARD, JOSEPH LAMONTE B M 38 18.2-456 CONTEMPT OF COURT
5/18/2018 1154 WHIGHAM, LORENZO LEE B M 30 18.2-388 PUBLIC SWEARING OR INTOXICATION
5/18/2018 1440 UNDERWOOD, SHANE W M 27 54.1-3466 POSSESS, DISTRIBUTE CONTROLLED PARAPHERNALIA 2018005822
5/18/2018 1440 UNDERWOOD, SHANE W M 27 18.2-250|[F] POSSESSION OF CONTROLLED SUBSTANCES 2018005822
5/18/2018 2144 ROBERTS, DIONE CHRISTINA B F 46 18.2-456 CONTEMPT OF COURT
5/18/2018 1:20:00 AM 0120 STEWARD, JERRY LEWIS B M 45 18.2-456 CONTEMPT OF COURT
5/19/2018 1350 INGE, JACLYN AMANDA W F 38 18.2-415 DISORDERLY CONDUCT 2018005875
5/19/2018 1600 TABRON, GRADY LEE B M 65 24-258 PUBLIC DRUNKENNESS 2018005877
5/19/2018 1740 CHERRY, LENAE ARMONI B F 19 18.2-137|[M] DESTRUCTION OF PROPERTY, GENERAL
5/19/2018 1740 CHERRY, LENAE ARMONI B F 19 18.2-57|[M] ASSAULT & BATTERY
5/20/2018 1215 MAYO, LEONARD ALLEN JR B M 58 18.2-103|[M] CONCEALMENT, PRICE ALTER MERCHANDISE <$200 2018005885
5/20/2018 1215 MAYO, LEONARD ALLEN JR B M 58 18.2-119 TRESPASSING 2018004604
5/20/2018 1215 MAYO, LEONARD ALLEN JR B M 58 18.2-58 ROBBERY 2018004604
5/20/2018 1215 MAYO, LEONARD ALLEN JR B M 58 18.2-104 LARCENY OR THEFT (3RD OR SUBSQ OFFENSE) 2018005885
5/20/2018 1422 HARDY, SHARON KAY B F 55 18.2-119 TRESPASSING
5/20/2018 2157 BURNHAM, PATRICIA MAY W F 39 18.2-57.2|[M] ASSAULT & BATTERY - FAMILY MEMBER 2018005916
5/20/2018 2157 BURNHAM, PATRICIA MAY W F 39 18.2-282|[M] BRANDISHING FIREARM 2018005916
5/20/2018 2157 BURNHAM, PATRICIA MAY W F 39 18.2-56.1 RECKLESS HANDLING OF FIREARM 2018005916
5/20/2018 2157 BURNHAM, PATRICIA MAY W F 39 18.2-371.1 ABUSE AND NEGLECT OF CHILDREN 2018005916
5/20/2018 2227 BURNHAM, JOHNNIE THOMAS III W M 39 18.2-282|[M] BRANDISHING FIREARM 2018005916
5/20/2018 2227 BURNHAM, JOHNNIE THOMAS III W M 39 18.2-57.2|[M] ASSAULT & BATTERY - FAMILY MEMBER 2018005916
5/20/2018 2227 BURNHAM, JOHNNIE THOMAS III W M 39 24-258 PUBLIC DRUNKENNESS 2018005916
5/21/2018 0332 GREEN, JORAM JOSIAS B M 32 18.2-57.2|[M] ASSAULT & BATTERY - FAMILY MEMBER
5/21/2018 0337 TERRY, PHILLIP ALAN W M 57 46.2-301 DRIVING W/SUSPENDED OR REVOKED LICENSE 2018004945
5/21/2018 0337 TERRY, PHILLIP ALAN W M 57 18.2-95 GRAND LARCENY 2018004945
5/21/2018 0401 DOLLAR, DONALD HENRY W M 54 19.2-306|[F] REVOCATION OF SUSPENDED SENTENCE AND PROBATION
5/21/2018 0911 COOPER, HENRY M B M 63 18.2-137|[M] DESTRUCTION OF PROPERTY, GENERAL
5/21/2018 1103 WHITAKER, ROMIKA RACHEL B F 34 18.2-60.4 [M] VIOLATION OF STALKING PROTECTIVE ORDER
5/21/2018 1400 COULTER, CHARLES JEFFREY W M 22 18.2-456 CONTEMPT OF COURT
5/21/2018 1837 WALSH, CHRISTOPHER MASON W M 42 18.2-456 CONTEMPT OF COURT
5/21/2018 1954 BACON, ANDREW MACK B M 37 18.2-456 CONTEMPT OF COURT
5/21/2018 2125 DELBRIDGE, STUART ALAN W M 36 18.2-95 GRAND LARCENY 2018005087
5/21/2018 2125 DELBRIDGE, STUART ALAN W M 36 18.2-178|[M] OBTAINING MONEY BY FALSE PRETENSES 2018005087
5/21/2018 4:20:00 AM 0420 WHITLOW, ANTHONY JAVON B M 32 18.2-57.2|[M] ASSAULT & BATTERY - FAMILY MEMBER
5/21/2018 8:28:00 AM 0828 ANDERSON, MARKEMIA B F 23 18.2-96|[M] PETIT LARCENY 2018005491
5/21/2018 10:55:00 AM 1055 ARCHIE, MALISSA DARE B F 37 18.2-60.4 [M] VIOLATION OF STALKING PROTECTIVE ORDER
5/21/2018 12:30:00 PM 1230 MUHAMMAD, CARL RENWICK B M 62 PB-15 PAROLE BOARD WARRANT - PB15
5/21/2018 3:02:00 PM 1502 RANDALL, DANIEL O`NEAL KIRK B M 27 18.2-57.2|[M] ASSAULT & BATTERY - FAMILY MEMBER 2018005538
5/21/2018 3:02:00 PM 1502 LOVING, ZACHARY ROBERT W M 29 19.2-306|[F] REVOCATION OF SUSPENDED SENTENCE AND PROBATION
5/21/2018 3:58:00 PM 1558 DREW, FAYE ISABELLE B F 67 24-258 PUBLIC DRUNKENNESS
5/21/2018 5:17:00 PM 1717 LOVING, ZACHARY ROBERT W M 29 18.2-178|[F] OBTAINING MONEY BY FALSE PRETENSES
5/21/2018 5:17:00 PM 1717 LOVING, ZACHARY ROBERT W M 29 18.2-195.1|[F] CREDIT CARD FACTORING W/INT TO DEFRAUD
5/21/2018 5:17:00 PM 1717 LOVING, ZACHARY ROBERT W M 29 18.2-192 CREDIT CARD THEFT
5/21/2018 10:25:00 PM 2225 WALLACE, AIAYJAH B F 18 18.2-57|[M] ASSAULT & BATTERY 2018003044
5/22/2018 0024 PATTERSON, RONALD LAMONT B M 51 18.2-57.2|[M] ASSAULT & BATTERY - FAMILY MEMBER
5/22/2018 1009 HALL, SABRINIA MARIE B F 25 18.2-57.2|[M] ASSAULT & BATTERY - FAMILY MEMBER 2015001387
5/22/2018 1009 HALL, SABRINIA MARIE B F 25 18.2-456 CONTEMPT OF COURT
5/22/2018 1030 SCHLEEPER, RYAN EDWARD W M 25 18.2-91|[F] BREAKING & ENTER W/INT TO COMMIT FELONY 2018004649
5/22/2018 1030 SCHLEEPER, AUSTYN TODD W M 22 18.2-91|[F] BREAKING & ENTER W/INT TO COMMIT FELONY 2018004649
5/22/2018 1050 SPEARS, SHARON MARIE W F 53 46.2-894 ACCIDENTS - HIT AND RUN RESULTING IN INJURY AND/OR DEATH [FE 2018005964
5/22/2018 1516 JOHNSON, ZINA JENNICE B F 51 18.2-250|[F] POSSESSION OF CONTROLLED SUBSTANCES
5/22/2018 1633 DREW, FAYE ISABELLE B F 67 24-258 PUBLIC DRUNKENNESS
5/22/2018 1916 WALTON, REGINALD LORENZO B M 50 18.2-96|[F] LARCENY OR THEFT (3RD OR SUBSQ OFFENSE)
5/22/2018 2347 BRANHAM, IAN GRAHAM W M 41 18.2-95 GRAND LARCENY 2017001781
5/22/2018 2347 BRANHAM, IAN GRAHAM W M 41 18.2-178|[M] OBTAINING MONEY BY FALSE PRETENSES 2017001781
5/22/2018 11:05:00 AM 1105 BULLOCK, TAQUISHA NISHAE B F 26 18.2-427 PROFANE, THREATENING LANGUAGE OVER PUBLIC AIRWAY
5/22/2018 11:05:00 AM 1105 BULLOCK, TAQUISHA NISHAE B F 26 18.2-137|[M] DESTRUCTION OF PROPERTY, GENERAL
5/22/2018 11:30:00 AM 1130 RICHARDSON, SOLOMAN VAUGHAN B M 48 18.2-456 CONTEMPT OF COURT
5/22/2018 12:00:00 PM 1200 DIGGS, ERIC LATRELL B M 40 19.2-306|[F] REVOCATION OF SUSPENDED SENTENCE AND PROBATION
5/22/2018 12:00:00 PM 1200 DIGGS, ERIC LATRELL B M 40 18.2-456 CONTEMPT OF COURT
5/22/2018 12:00:00 PM 1200 DIGGS, ERIC LATRELL B M 40 PB-14 PAROLE BOARD WARRANT - PB14